Time,TemperatureF,DewpointF,PressureIn,WindDirection,WindDirectionDegrees,WindSpeedMPH,WindSpeedGustMPH,Humidity,HourlyPrecipIn,Conditions,Clouds,dailyrainin,SoftwareType,DateUTC
2013-10-01 00:00:00,50.4,47.3,30.01,WNW,300,1.0,3.0,89,0.00,,,0.00,Wunderground v.1.15,2013-10-01 04:00:00,
2013-10-01 00:05:00,50.3,46.9,30.01,NW,307,2.0,3.0,88,0.00,,,0.00,Wunderground v.1.15,2013-10-01 04:05:00,
2013-10-01 00:06:00,50.3,46.9,30.01,NW,307,1.0,3.0,88,0.00,,,0.00,Wunderground v.1.15,2013-10-01 04:06:00,
2013-10-01 00:07:00,50.3,46.9,30.01,NW,315,1.0,3.0,88,0.00,,,0.00,Wunderground v.1.15,2013-10-01 04:07:00,
2013-10-01 00:10:00,50.3,46.9,30.01,NW,325,1.0,3.0,88,0.00,,,0.00,Wunderground v.1.15,2013-10-01 04:10:00,
2013-10-01 00:11:00,50.3,46.9,30.01,NW,325,1.0,3.0,88,0.00,,,0.00,Wunderground v.1.15,2013-10-01 04:11:00,
2013-10-01 00:12:00,50.3,46.9,30.01,NW,325,2.0,3.0,88,0.00,,,0.00,Wunderground v.1.15,2013-10-01 04:12:00,
2013-10-01 00:15:00,50.3,46.9,30.01,NNW,346,4.0,5.0,88,0.00,,,0.00,Wunderground v.1.15,2013-10-01 04:15:00,
2013-10-01 00:16:00,50.3,46.9,30.01,NNW,346,1.0,5.0,88,0.00,,,0.00,Wunderground v.1.15,2013-10-01 04:16:00,
2013-10-01 00:17:00,50.3,46.9,30.01,NNW,346,1.0,5.0,88,0.00,,,0.00,Wunderground v.1.15,2013-10-01 04:17:00,
2013-10-01 00:18:00,50.3,46.9,30.01,NNW,346,0.0,5.0,88,0.00,,,0.00,Wunderground v.1.15,2013-10-01 04:18:00,
2013-10-01 00:20:00,50.2,46.8,30.01,NNW,338,1.0,-999.0,88,0.00,,,0.01,Wunderground v.1.15,2013-10-01 04:20:00,
2013-10-01 00:21:00,50.3,46.9,30.01,NNW,346,1.0,2.0,88,0.00,,,0.00,Wunderground v.1.15,2013-10-01 04:21:00,
2013-10-01 00:22:00,50.3,46.9,30.01,NNW,346,1.0,2.0,88,0.00,,,0.00,Wunderground v.1.15,2013-10-01 04:22:00,
2013-10-01 00:23:00,50.2,46.8,30.01,NNW,346,1.0,2.0,88,0.00,,,0.00,Wunderground v.1.15,2013-10-01 04:23:00,
2013-10-01 00:25:00,50.1,46.7,30.01,NW,315,1.0,-999.0,88,0.00,,,0.01,Wunderground v.1.15,2013-10-01 04:25:00,
2013-10-01 00:26:00,50.1,46.7,30.01,NW,322,1.0,5.0,88,0.00,,,0.00,Wunderground v.1.15,2013-10-01 04:26:00,
2013-10-01 00:27:00,50.1,46.7,30.01,NW,322,0.0,5.0,88,0.00,,,0.00,Wunderground v.1.15,2013-10-01 04:27:00,
2013-10-01 00:28:00,50.1,46.7,30.01,NW,323,2.0,2.0,88,0.00,,,0.00,Wunderground v.1.15,2013-10-01 04:28:00,
2013-10-01 00:30:00,50.1,46.7,30.01,NW,323,2.0,2.0,88,0.00,,,0.00,Wunderground v.1.15,2013-10-01 04:30:00,
2013-10-01 00:33:00,50.2,46.8,30.01,NNW,333,0.0,2.0,88,0.00,,,0.00,Wunderground v.1.15,2013-10-01 04:33:00,
2013-10-01 00:34:00,50.2,46.8,30.01,NNW,327,3.0,3.0,88,0.00,,,0.00,Wunderground v.1.15,2013-10-01 04:34:00,
2013-10-01 00:35:00,50.2,46.8,30.01,NNW,327,0.0,3.0,88,0.00,,,0.00,Wunderground v.1.15,2013-10-01 04:35:00,
2013-10-01 00:39:00,50.3,46.9,30.01,NW,322,3.0,3.0,88,0.00,,,0.00,Wunderground v.1.15,2013-10-01 04:39:00,
2013-10-01 00:40:00,50.4,47.0,30.01,NW,325,2.0,3.0,88,0.00,,,0.00,Wunderground v.1.15,2013-10-01 04:40:00,
2013-10-01 00:44:00,50.5,47.1,30.01,NNW,335,3.0,3.0,88,0.00,,,0.00,Wunderground v.1.15,2013-10-01 04:44:00,
2013-10-01 00:45:00,50.6,47.2,30.01,NW,315,2.0,-999.0,88,0.00,,,0.01,Wunderground v.1.15,2013-10-01 04:45:00,
2013-10-01 00:48:00,50.6,47.2,30.01,North,355,3.0,3.0,88,0.00,,,0.00,Wunderground v.1.15,2013-10-01 04:48:00,
2013-10-01 00:49:00,50.6,47.2,30.01,NNW,338,3.0,3.0,88,0.00,,,0.00,Wunderground v.1.15,2013-10-01 04:49:00,
2013-10-01 00:50:00,50.7,47.3,30.01,NW,316,2.0,3.0,88,0.00,,,0.00,Wunderground v.1.15,2013-10-01 04:50:00,
2013-10-01 00:51:00,50.7,47.3,30.01,NNW,341,1.0,3.0,88,0.00,,,0.00,Wunderground v.1.15,2013-10-01 04:51:00,
2013-10-01 00:55:00,50.8,47.1,30.01,NNW,338,1.0,-999.0,87,0.00,,,0.01,Wunderground v.1.15,2013-10-01 04:55:00,
2013-10-01 00:56:00,50.8,47.1,30.01,NNW,329,2.0,3.0,87,0.00,,,0.00,Wunderground v.1.15,2013-10-01 04:56:00,
2013-10-01 01:00:00,50.8,47.1,30.01,NNW,329,1.0,2.0,87,0.00,,,0.00,Wunderground v.1.15,2013-10-01 05:00:00,
2013-10-01 01:02:00,50.7,47.0,30.01,NW,319,1.0,2.0,87,0.00,,,0.00,Wunderground v.1.15,2013-10-01 05:02:00,
2013-10-01 01:03:00,50.7,47.0,30.01,NW,319,1.0,2.0,87,0.00,,,0.00,Wunderground v.1.15,2013-10-01 05:03:00,
2013-10-01 01:05:00,50.6,46.9,30.01,NW,315,1.0,-999.0,87,0.00,,,0.01,Wunderground v.1.15,2013-10-01 05:05:00,
2013-10-01 01:08:00,50.6,46.9,30.01,NW,319,0.0,1.0,87,0.00,,,0.00,Wunderground v.1.15,2013-10-01 05:08:00,
2013-10-01 01:09:00,50.6,46.9,30.01,NW,319,2.0,2.0,87,0.00,,,0.00,Wunderground v.1.15,2013-10-01 05:09:00,
2013-10-01 01:10:00,50.6,46.9,30.01,NW,319,1.0,2.0,87,0.00,,,0.00,Wunderground v.1.15,2013-10-01 05:10:00,
2013-10-01 01:12:00,50.5,46.8,30.01,NW,319,2.0,2.0,87,0.00,,,0.00,Wunderground v.1.15,2013-10-01 05:12:00,
2013-10-01 01:15:00,50.5,46.8,30.01,NNW,330,2.0,2.0,87,0.00,,,0.00,Wunderground v.1.15,2013-10-01 05:15:00,
2013-10-01 01:17:00,50.5,46.8,30.01,NNW,332,3.0,3.0,87,0.00,,,0.00,Wunderground v.1.15,2013-10-01 05:17:00,
2013-10-01 01:18:00,50.5,46.8,30.01,NNW,332,1.0,1.0,87,0.00,,,0.00,Wunderground v.1.15,2013-10-01 05:18:00,
2013-10-01 01:20:00,50.5,46.8,30.01,NNW,331,1.0,1.0,87,0.00,,,0.00,Wunderground v.1.15,2013-10-01 05:20:00,
2013-10-01 01:23:00,50.5,46.8,30.00,NNW,331,2.0,2.0,87,0.00,,,0.00,Wunderground v.1.15,2013-10-01 05:23:00,
2013-10-01 01:25:00,50.6,46.9,30.00,NNW,338,1.0,-999.0,87,0.00,,,0.01,Wunderground v.1.15,2013-10-01 05:25:00,
2013-10-01 01:28:00,50.6,46.9,30.00,NNW,332,3.0,3.0,87,0.00,,,0.00,Wunderground v.1.15,2013-10-01 05:28:00,
2013-10-01 01:29:00,50.6,46.9,30.00,NNW,332,1.0,3.0,87,0.00,,,0.00,Wunderground v.1.15,2013-10-01 05:29:00,
2013-10-01 01:30:00,50.6,46.9,30.00,NNW,331,2.0,3.0,87,0.00,,,0.00,Wunderground v.1.15,2013-10-01 05:30:00,
2013-10-01 01:33:00,50.7,47.0,30.00,NNW,329,1.0,3.0,87,0.00,,,0.00,Wunderground v.1.15,2013-10-01 05:33:00,
2013-10-01 01:34:00,50.7,47.0,30.00,NNW,329,0.0,3.0,87,0.00,,,0.00,Wunderground v.1.15,2013-10-01 05:34:00,
2013-10-01 01:35:00,50.8,47.1,30.00,NNW,329,1.0,3.0,87,0.00,,,0.00,Wunderground v.1.15,2013-10-01 05:35:00,
2013-10-01 01:39:00,50.8,47.1,30.01,North,355,1.0,1.0,87,0.00,,,0.00,Wunderground v.1.15,2013-10-01 05:39:00,
2013-10-01 01:40:00,50.9,47.2,30.01,NW,326,2.0,2.0,87,0.00,,,0.00,Wunderground v.1.15,2013-10-01 05:40:00,
2013-10-01 01:41:00,50.9,47.2,30.01,WNW,292,1.0,2.0,87,0.00,,,0.00,Wunderground v.1.15,2013-10-01 05:41:00,
2013-10-01 01:44:00,51.0,47.3,30.01,WNW,292,1.0,2.0,87,0.00,,,0.00,Wunderground v.1.15,2013-10-01 05:44:00,
2013-10-01 01:45:00,51.0,47.3,30.01,WNW,292,0.0,2.0,87,0.00,,,0.00,Wunderground v.1.15,2013-10-01 05:45:00,
2013-10-01 01:46:00,50.9,47.2,30.01,WNW,292,0.0,2.0,87,0.00,,,0.00,Wunderground v.1.15,2013-10-01 05:46:00,
2013-10-01 01:50:00,50.6,46.9,30.01,WNW,293,0.0,-999.0,87,0.00,,,0.01,Wunderground v.1.15,2013-10-01 05:50:00,
2013-10-01 01:51:00,50.7,47.0,30.01,WNW,292,0.0,1.0,87,0.00,,,0.00,Wunderground v.1.15,2013-10-01 05:51:00,
2013-10-01 01:52:00,50.6,46.9,30.01,WNW,292,0.0,1.0,87,0.00,,,0.00,Wunderground v.1.15,2013-10-01 05:52:00,
2013-10-01 01:53:00,50.5,46.8,30.01,WNW,292,0.0,1.0,87,0.00,,,0.00,Wunderground v.1.15,2013-10-01 05:53:00,
2013-10-01 01:55:00,50.3,46.6,30.01,N/A,-737280,0.0,-999.0,87,0.00,,,0.01,Wunderground v.1.15,2013-10-01 05:55:00,
2013-10-01 01:59:00,50.3,46.6,30.01,WNW,292,0.0,0.0,87,0.00,,,0.00,Wunderground v.1.15,2013-10-01 05:59:00,
2013-10-01 02:00:00,50.2,46.5,30.01,WNW,292,0.0,0.0,87,0.00,,,0.00,Wunderground v.1.15,2013-10-01 06:00:00,
2013-10-01 02:02:00,50.1,46.7,30.00,WNW,292,0.0,0.0,88,0.00,,,0.00,Wunderground v.1.15,2013-10-01 06:02:00,
2013-10-01 02:05:00,49.8,46.4,30.00,WNW,292,0.0,0.0,88,0.00,,,0.00,Wunderground v.1.15,2013-10-01 06:05:00,
2013-10-01 02:06:00,49.7,46.3,30.00,WNW,292,0.0,0.0,88,0.00,,,0.00,Wunderground v.1.15,2013-10-01 06:06:00,
2013-10-01 02:10:00,48.9,45.8,30.00,N/A,-737280,0.0,-999.0,89,0.00,,,0.01,Wunderground v.1.15,2013-10-01 06:10:00,
2013-10-01 02:11:00,49.0,45.6,30.01,WNW,292,0.0,0.0,88,0.00,,,0.00,Wunderground v.1.15,2013-10-01 06:11:00,
2013-10-01 02:12:00,48.9,45.5,30.00,WNW,292,0.0,0.0,88,0.00,,,0.00,Wunderground v.1.15,2013-10-01 06:12:00,
2013-10-01 02:15:00,48.8,45.7,30.00,WNW,292,0.0,0.0,89,0.00,,,0.00,Wunderground v.1.15,2013-10-01 06:15:00,
2013-10-01 02:17:00,48.7,45.6,30.00,WNW,292,1.0,1.0,89,0.00,,,0.00,Wunderground v.1.15,2013-10-01 06:17:00,
2013-10-01 02:19:00,48.6,45.5,30.00,WNW,292,0.0,1.0,89,0.00,,,0.00,Wunderground v.1.15,2013-10-01 06:19:00,
2013-10-01 02:20:00,48.5,45.4,30.00,WNW,292,0.0,1.0,89,0.00,,,0.00,Wunderground v.1.15,2013-10-01 06:20:00,
2013-10-01 02:22:00,48.5,45.4,30.00,WNW,292,0.0,1.0,89,0.00,,,0.00,Wunderground v.1.15,2013-10-01 06:22:00,
2013-10-01 02:23:00,48.4,45.3,30.01,WNW,292,0.0,1.0,89,0.00,,,0.00,Wunderground v.1.15,2013-10-01 06:23:00,
2013-10-01 02:25:00,48.2,45.1,30.00,N/A,-737280,0.0,-999.0,89,0.00,,,0.01,Wunderground v.1.15,2013-10-01 06:25:00,
2013-10-01 02:27:00,48.3,45.2,30.00,WNW,292,0.0,1.0,89,0.00,,,0.00,Wunderground v.1.15,2013-10-01 06:27:00,
2013-10-01 02:28:00,48.2,45.1,30.00,WNW,292,0.0,0.0,89,0.00,,,0.00,Wunderground v.1.15,2013-10-01 06:28:00,
2013-10-01 02:29:00,48.2,45.1,30.00,WNW,292,0.0,0.0,89,0.00,,,0.00,Wunderground v.1.15,2013-10-01 06:29:00,
2013-10-01 02:30:00,48.0,44.9,30.00,N/A,-737280,0.0,-999.0,89,0.00,,,0.01,Wunderground v.1.15,2013-10-01 06:30:00,
2013-10-01 02:32:00,48.0,44.9,30.00,WNW,292,0.0,0.0,89,0.00,,,0.00,Wunderground v.1.15,2013-10-01 06:32:00,
2013-10-01 02:34:00,47.9,44.8,30.00,WNW,292,0.0,0.0,89,0.00,,,0.00,Wunderground v.1.15,2013-10-01 06:34:00,
2013-10-01 02:35:00,47.7,44.6,30.00,WNW,293,0.0,-999.0,89,0.00,,,0.01,Wunderground v.1.15,2013-10-01 06:35:00,
2013-10-01 02:38:00,47.7,44.6,30.00,WNW,292,1.0,1.0,89,0.00,,,0.00,Wunderground v.1.15,2013-10-01 06:38:00,
2013-10-01 02:39:00,47.6,44.5,30.00,WNW,292,0.0,1.0,89,0.00,,,0.00,Wunderground v.1.15,2013-10-01 06:39:00,
2013-10-01 02:40:00,47.4,44.3,30.00,WNW,293,0.0,-999.0,89,0.00,,,0.01,Wunderground v.1.15,2013-10-01 06:40:00,
2013-10-01 02:43:00,47.4,44.3,30.00,WNW,292,0.0,1.0,89,0.00,,,0.00,Wunderground v.1.15,2013-10-01 06:43:00,
2013-10-01 02:44:00,47.4,44.3,30.00,WNW,292,0.0,1.0,89,0.00,,,0.00,Wunderground v.1.15,2013-10-01 06:44:00,
2013-10-01 02:45:00,47.3,44.2,30.00,WNW,292,0.0,1.0,89,0.00,,,0.00,Wunderground v.1.15,2013-10-01 06:45:00,
2013-10-01 02:48:00,47.2,44.1,30.00,WNW,292,0.0,1.0,89,0.00,,,0.00,Wunderground v.1.15,2013-10-01 06:48:00,
2013-10-01 02:49:00,47.2,44.1,30.00,WNW,292,0.0,1.0,89,0.00,,,0.00,Wunderground v.1.15,2013-10-01 06:49:00,
2013-10-01 02:50:00,47.1,44.0,30.00,WNW,292,0.0,1.0,89,0.00,,,0.00,Wunderground v.1.15,2013-10-01 06:50:00,
2013-10-01 02:53:00,47.0,43.9,30.00,WNW,292,0.0,1.0,89,0.00,,,0.00,Wunderground v.1.15,2013-10-01 06:53:00,
2013-10-01 02:54:00,46.9,43.8,30.00,WNW,292,1.0,1.0,89,0.00,,,0.00,Wunderground v.1.15,2013-10-01 06:54:00,
2013-10-01 02:55:00,46.9,43.8,30.00,WNW,292,0.0,1.0,89,0.00,,,0.00,Wunderground v.1.15,2013-10-01 06:55:00,
2013-10-01 02:56:00,46.8,43.7,30.00,WNW,292,1.0,1.0,89,0.00,,,0.00,Wunderground v.1.15,2013-10-01 06:56:00,
2013-10-01 02:58:00,46.7,43.6,30.00,WNW,292,0.0,0.0,89,0.00,,,0.00,Wunderground v.1.15,2013-10-01 06:58:00,
2013-10-01 03:00:00,46.6,43.5,30.00,WNW,292,0.0,1.0,89,0.00,,,0.00,Wunderground v.1.15,2013-10-01 07:00:00,
2013-10-01 03:01:00,46.5,43.4,30.00,WNW,292,0.0,1.0,89,0.00,,,0.00,Wunderground v.1.15,2013-10-01 07:01:00,
2013-10-01 03:03:00,46.4,43.3,30.00,WNW,292,0.0,1.0,89,0.00,,,0.00,Wunderground v.1.15,2013-10-01 07:03:00,
2013-10-01 03:05:00,46.3,43.2,30.00,WNW,292,0.0,1.0,89,0.00,,,0.00,Wunderground v.1.15,2013-10-01 07:05:00,
2013-10-01 03:06:00,46.3,43.2,30.00,WNW,292,0.0,1.0,89,0.00,,,0.00,Wunderground v.1.15,2013-10-01 07:06:00,
2013-10-01 03:08:00,46.2,43.1,30.00,WNW,292,0.0,1.0,89,0.00,,,0.00,Wunderground v.1.15,2013-10-01 07:08:00,
2013-10-01 03:10:00,46.1,43.0,30.00,WNW,293,1.0,-999.0,89,0.00,,,0.01,Wunderground v.1.15,2013-10-01 07:10:00,
2013-10-01 03:11:00,46.1,43.0,30.00,WNW,292,1.0,2.0,89,0.00,,,0.00,Wunderground v.1.15,2013-10-01 07:11:00,
2013-10-01 03:13:00,46.1,43.0,30.00,WNW,292,1.0,2.0,89,0.00,,,0.00,Wunderground v.1.15,2013-10-01 07:13:00,
2013-10-01 03:15:00,46.1,43.0,30.00,WNW,293,1.0,-999.0,89,0.00,,,0.01,Wunderground v.1.15,2013-10-01 07:15:00,
2013-10-01 03:16:00,46.1,43.0,30.00,WNW,292,0.0,2.0,89,0.00,,,0.00,Wunderground v.1.15,2013-10-01 07:16:00,
2013-10-01 03:18:00,46.1,43.0,30.00,WNW,292,1.0,1.0,89,0.00,,,0.00,Wunderground v.1.15,2013-10-01 07:18:00,
2013-10-01 03:20:00,46.3,42.9,30.00,WNW,293,1.0,-999.0,88,0.00,,,0.01,Wunderground v.1.15,2013-10-01 07:20:00,
2013-10-01 03:21:00,46.2,43.1,30.00,WNW,296,1.0,3.0,89,0.00,,,0.00,Wunderground v.1.15,2013-10-01 07:21:00,
2013-10-01 03:22:00,46.3,43.2,30.00,WNW,296,1.0,3.0,89,0.00,,,0.00,Wunderground v.1.15,2013-10-01 07:22:00,
2013-10-01 03:23:00,46.4,43.3,30.00,WNW,298,2.0,3.0,89,0.00,,,0.00,Wunderground v.1.15,2013-10-01 07:23:00,
2013-10-01 03:25:00,46.8,43.4,30.00,NW,315,2.0,-999.0,88,0.00,,,0.01,Wunderground v.1.15,2013-10-01 07:25:00,
2013-10-01 03:26:00,46.7,43.3,30.00,NW,315,1.0,3.0,88,0.00,,,0.00,Wunderground v.1.15,2013-10-01 07:26:00,
2013-10-01 03:27:00,46.7,43.3,30.00,NW,316,2.0,3.0,88,0.00,,,0.00,Wunderground v.1.15,2013-10-01 07:27:00,
2013-10-01 03:29:00,46.9,43.5,30.00,NNW,330,1.0,4.0,88,0.00,,,0.00,Wunderground v.1.15,2013-10-01 07:29:00,
2013-10-01 03:30:00,47.5,44.1,30.00,NW,315,2.0,-999.0,88,0.00,,,0.01,Wunderground v.1.15,2013-10-01 07:30:00,
2013-10-01 03:31:00,47.3,43.9,30.00,NNW,342,2.0,8.0,88,0.00,,,0.00,Wunderground v.1.15,2013-10-01 07:31:00,
2013-10-01 03:32:00,47.4,44.0,30.00,WNW,303,1.0,8.0,88,0.00,,,0.00,Wunderground v.1.15,2013-10-01 07:32:00,
2013-10-01 03:34:00,47.7,44.3,30.00,NW,319,2.0,8.0,88,0.00,,,0.00,Wunderground v.1.15,2013-10-01 07:34:00,
2013-10-01 03:35:00,48.0,44.6,29.99,NNW,338,2.0,-999.0,88,0.00,,,0.01,Wunderground v.1.15,2013-10-01 07:35:00,
2013-10-01 03:36:00,47.9,44.5,30.00,NW,315,2.0,8.0,88,0.00,,,0.00,Wunderground v.1.15,2013-10-01 07:36:00,
2013-10-01 03:37:00,47.9,44.5,30.00,NNW,338,4.0,8.0,88,0.00,,,0.00,Wunderground v.1.15,2013-10-01 07:37:00,
2013-10-01 03:39:00,48.1,44.7,29.99,NNW,345,1.0,3.0,88,0.00,,,0.00,Wunderground v.1.15,2013-10-01 07:39:00,
2013-10-01 03:40:00,48.4,45.3,30.00,NW,315,2.0,-999.0,89,0.00,,,0.01,Wunderground v.1.15,2013-10-01 07:40:00,
2013-10-01 03:41:00,48.3,45.2,30.00,NW,319,1.0,4.0,89,0.00,,,0.00,Wunderground v.1.15,2013-10-01 07:41:00,
2013-10-01 03:42:00,48.4,45.3,30.00,NW,320,2.0,4.0,89,0.00,,,0.00,Wunderground v.1.15,2013-10-01 07:42:00,
2013-10-01 03:44:00,48.5,45.4,30.00,NNW,331,3.0,4.0,89,0.00,,,0.00,Wunderground v.1.15,2013-10-01 07:44:00,
2013-10-01 03:45:00,48.7,45.6,30.00,NNW,338,2.0,-999.0,89,0.00,,,0.01,Wunderground v.1.15,2013-10-01 07:45:00,
2013-10-01 03:47:00,48.7,45.6,30.00,NNW,336,3.0,4.0,89,0.00,,,0.00,Wunderground v.1.15,2013-10-01 07:47:00,
2013-10-01 03:49:00,48.9,45.8,30.00,NNW,336,1.0,4.0,89,0.00,,,0.00,Wunderground v.1.15,2013-10-01 07:49:00,
2013-10-01 03:50:00,49.0,45.9,30.00,NNW,338,1.0,-999.0,89,0.00,,,0.01,Wunderground v.1.15,2013-10-01 07:50:00,
2013-10-01 03:52:00,49.0,45.9,30.00,NNW,333,2.0,4.0,89,0.00,,,0.00,Wunderground v.1.15,2013-10-01 07:52:00,
2013-10-01 03:53:00,49.1,46.0,30.00,NNW,333,1.0,4.0,89,0.00,,,0.00,Wunderground v.1.15,2013-10-01 07:53:00,
2013-10-01 03:54:00,49.1,46.0,30.00,NNW,334,1.0,4.0,89,0.00,,,0.00,Wunderground v.1.15,2013-10-01 07:54:00,
2013-10-01 03:55:00,49.2,46.1,30.00,NW,315,2.0,-999.0,89,0.00,,,0.01,Wunderground v.1.15,2013-10-01 07:55:00,
2013-10-01 03:57:00,49.2,46.1,30.00,NW,316,2.0,4.0,89,0.00,,,0.00,Wunderground v.1.15,2013-10-01 07:57:00,
2013-10-01 03:58:00,49.2,46.1,30.00,NW,316,1.0,4.0,89,0.00,,,0.00,Wunderground v.1.15,2013-10-01 07:58:00,
2013-10-01 03:59:00,49.2,46.1,30.00,NW,306,2.0,4.0,89,0.00,,,0.00,Wunderground v.1.15,2013-10-01 07:59:00,
2013-10-01 04:00:00,49.3,46.2,30.00,NNW,338,2.0,-999.0,89,0.00,,,0.01,Wunderground v.1.15,2013-10-01 08:00:00,
2013-10-01 04:02:00,49.3,46.2,30.00,NNW,329,3.0,4.0,89,0.00,,,0.00,Wunderground v.1.15,2013-10-01 08:02:00,
2013-10-01 04:03:00,49.4,46.3,30.00,NNW,329,1.0,4.0,89,0.00,,,0.00,Wunderground v.1.15,2013-10-01 08:03:00,
2013-10-01 04:04:00,49.4,46.3,30.00,NW,326,1.0,4.0,89,0.00,,,0.00,Wunderground v.1.15,2013-10-01 08:04:00,
2013-10-01 04:05:00,49.4,46.3,30.00,NW,315,2.0,-999.0,89,0.00,,,0.01,Wunderground v.1.15,2013-10-01 08:05:00,
2013-10-01 04:08:00,49.4,46.3,30.00,NW,323,3.0,3.0,89,0.00,,,0.00,Wunderground v.1.15,2013-10-01 08:08:00,
2013-10-01 04:09:00,49.4,46.3,30.00,NW,323,1.0,4.0,89,0.00,,,0.00,Wunderground v.1.15,2013-10-01 08:09:00,
2013-10-01 04:10:00,49.4,46.3,30.00,NW,315,2.0,-999.0,89,0.00,,,0.01,Wunderground v.1.15,2013-10-01 08:10:00,
2013-10-01 04:13:00,49.4,46.3,30.00,NW,320,2.0,7.0,89,0.00,,,0.00,Wunderground v.1.15,2013-10-01 08:13:00,
2013-10-01 04:14:00,49.3,46.2,30.00,NW,318,2.0,7.0,89,0.00,,,0.00,Wunderground v.1.15,2013-10-01 08:14:00,
2013-10-01 04:15:00,49.3,46.2,30.00,NNW,338,2.0,-999.0,89,0.00,,,0.01,Wunderground v.1.15,2013-10-01 08:15:00,
2013-10-01 04:18:00,49.2,46.1,30.00,NNW,338,1.0,3.0,89,0.00,,,0.00,Wunderground v.1.15,2013-10-01 08:18:00,
2013-10-01 04:20:00,49.2,46.1,30.00,NNW,335,2.0,3.0,89,0.00,,,0.00,Wunderground v.1.15,2013-10-01 08:20:00,
2013-10-01 04:23:00,49.2,46.1,30.00,NNW,340,3.0,5.0,89,0.00,,,0.00,Wunderground v.1.15,2013-10-01 08:23:00,
2013-10-01 04:24:00,49.2,46.1,30.00,West,275,3.0,5.0,89,0.00,,,0.00,Wunderground v.1.15,2013-10-01 08:24:00,
2013-10-01 04:25:00,49.1,46.0,30.00,NNW,338,2.0,-999.0,89,0.00,,,0.01,Wunderground v.1.15,2013-10-01 08:25:00,
2013-10-01 04:26:00,49.2,46.1,30.00,NNW,330,1.0,5.0,89,0.00,,,0.00,Wunderground v.1.15,2013-10-01 08:26:00,
2013-10-01 04:29:00,49.1,46.0,30.00,NNW,334,4.0,4.0,89,0.00,,,0.00,Wunderground v.1.15,2013-10-01 08:29:00,
2013-10-01 04:30:00,49.0,45.9,30.00,NNW,338,2.0,-999.0,89,0.00,,,0.01,Wunderground v.1.15,2013-10-01 08:30:00,
2013-10-01 04:31:00,49.0,45.9,30.00,NW,319,3.0,4.0,89,0.00,,,0.00,Wunderground v.1.15,2013-10-01 08:31:00,
2013-10-01 04:34:00,49.0,45.9,30.00,NNW,332,2.0,4.0,89,0.00,,,0.00,Wunderground v.1.15,2013-10-01 08:34:00,
2013-10-01 04:35:00,49.0,45.9,29.99,NNW,338,2.0,-999.0,89,0.00,,,0.01,Wunderground v.1.15,2013-10-01 08:35:00,
2013-10-01 04:36:00,49.0,45.9,29.99,NNW,333,3.0,4.0,89,0.00,,,0.00,Wunderground v.1.15,2013-10-01 08:36:00,
2013-10-01 04:39:00,49.0,45.9,29.99,NW,305,1.0,4.0,89,0.00,,,0.00,Wunderground v.1.15,2013-10-01 08:39:00,
2013-10-01 04:40:00,49.0,45.9,29.99,NW,319,2.0,4.0,89,0.00,,,0.00,Wunderground v.1.15,2013-10-01 08:40:00,
2013-10-01 04:41:00,49.0,45.9,29.99,NW,320,1.0,4.0,89,0.00,,,0.00,Wunderground v.1.15,2013-10-01 08:41:00,
2013-10-01 04:45:00,49.1,46.0,29.99,NNW,327,0.0,5.0,89,0.00,,,0.00,Wunderground v.1.15,2013-10-01 08:45:00,
2013-10-01 04:46:00,49.2,46.1,29.99,NW,326,1.0,5.0,89,0.00,,,0.00,Wunderground v.1.15,2013-10-01 08:46:00,
2013-10-01 04:50:00,49.3,46.2,29.99,NNW,340,3.0,4.0,89,0.00,,,0.00,Wunderground v.1.15,2013-10-01 08:50:00,
2013-10-01 04:51:00,49.4,46.3,29.99,NW,319,0.0,5.0,89,0.00,,,0.00,Wunderground v.1.15,2013-10-01 08:51:00,
2013-10-01 04:55:00,49.5,46.4,29.99,NW,315,1.0,5.0,89,0.00,,,0.00,Wunderground v.1.15,2013-10-01 08:55:00,
2013-10-01 04:56:00,49.5,46.4,29.99,NW,315,0.0,5.0,89,0.00,,,0.00,Wunderground v.1.15,2013-10-01 08:56:00,
2013-10-01 04:57:00,49.5,46.4,29.99,NW,315,1.0,5.0,89,0.00,,,0.00,Wunderground v.1.15,2013-10-01 08:57:00,
2013-10-01 05:00:00,49.6,46.5,29.99,North,350,2.0,2.0,89,0.00,,,0.00,Wunderground v.1.15,2013-10-01 09:00:00,
2013-10-01 05:01:00,49.6,46.5,29.99,NNW,343,2.0,2.0,89,0.00,,,0.00,Wunderground v.1.15,2013-10-01 09:01:00,
2013-10-01 05:02:00,49.7,46.6,29.99,NNW,343,1.0,2.0,89,0.00,,,0.00,Wunderground v.1.15,2013-10-01 09:02:00,
2013-10-01 05:05:00,49.7,46.6,29.99,NNW,334,0.0,5.0,89,0.00,,,0.00,Wunderground v.1.15,2013-10-01 09:05:00,
2013-10-01 05:06:00,49.7,46.6,29.99,NW,309,2.0,5.0,89,0.00,,,0.00,Wunderground v.1.15,2013-10-01 09:06:00,
2013-10-01 05:07:00,49.8,46.7,29.99,NW,306,2.0,5.0,89,0.00,,,0.00,Wunderground v.1.15,2013-10-01 09:07:00,
2013-10-01 05:10:00,49.8,46.7,29.99,NNW,338,2.0,-999.0,89,0.00,,,0.01,Wunderground v.1.15,2013-10-01 09:10:00,
2013-10-01 05:11:00,49.8,46.7,29.99,North,355,1.0,5.0,89,0.00,,,0.00,Wunderground v.1.15,2013-10-01 09:11:00,
2013-10-01 05:13:00,49.8,46.7,29.99,NW,309,2.0,5.0,89,0.00,,,0.00,Wunderground v.1.15,2013-10-01 09:13:00,
2013-10-01 05:15:00,49.7,46.6,29.99,NNW,338,2.0,-999.0,89,0.00,,,0.01,Wunderground v.1.15,2013-10-01 09:15:00,
2013-10-01 05:16:00,49.7,46.6,29.99,NNW,338,1.0,5.0,89,0.00,,,0.00,Wunderground v.1.15,2013-10-01 09:16:00,
2013-10-01 05:18:00,49.7,46.6,29.99,North,355,0.0,2.0,89,0.00,,,0.00,Wunderground v.1.15,2013-10-01 09:18:00,
2013-10-01 05:20:00,49.7,46.6,29.99,NW,315,2.0,-999.0,89,0.00,,,0.01,Wunderground v.1.15,2013-10-01 09:20:00,
2013-10-01 05:21:00,49.7,46.6,29.99,NNW,332,2.0,5.0,89,0.00,,,0.00,Wunderground v.1.15,2013-10-01 09:21:00,
2013-10-01 05:22:00,49.6,46.5,29.99,NW,325,0.0,5.0,89,0.00,,,0.00,Wunderground v.1.15,2013-10-01 09:22:00,
2013-10-01 05:23:00,49.6,46.5,29.99,NW,322,4.0,7.0,89,0.00,,,0.00,Wunderground v.1.15,2013-10-01 09:23:00,
2013-10-01 05:25:00,49.6,46.5,29.99,NW,315,2.0,-999.0,89,0.00,,,0.01,Wunderground v.1.15,2013-10-01 09:25:00,
2013-10-01 05:27:00,49.6,46.5,29.99,NW,309,2.0,7.0,89,0.00,,,0.00,Wunderground v.1.15,2013-10-01 09:27:00,
2013-10-01 05:28:00,49.6,46.5,29.99,WNW,292,2.0,2.0,89,0.00,,,0.00,Wunderground v.1.15,2013-10-01 09:28:00,
2013-10-01 05:30:00,49.5,46.4,29.99,NW,315,1.0,-999.0,89,0.00,,,0.01,Wunderground v.1.15,2013-10-01 09:30:00,
2013-10-01 05:32:00,49.5,46.4,29.99,NW,323,3.0,4.0,89,0.00,,,0.00,Wunderground v.1.15,2013-10-01 09:32:00,
2013-10-01 05:34:00,49.5,46.4,29.99,NNW,333,1.0,4.0,89,0.00,,,0.00,Wunderground v.1.15,2013-10-01 09:34:00,
2013-10-01 05:35:00,49.5,46.4,29.99,NNW,338,2.0,-999.0,89,0.00,,,0.01,Wunderground v.1.15,2013-10-01 09:35:00,
2013-10-01 05:37:00,49.5,46.4,29.99,NW,321,3.0,5.0,89,0.00,,,0.00,Wunderground v.1.15,2013-10-01 09:37:00,
2013-10-01 05:40:00,49.5,46.4,29.99,NW,310,7.0,7.0,89,0.00,,,0.00,Wunderground v.1.15,2013-10-01 09:40:00,
2013-10-01 05:42:00,49.5,46.4,29.99,NNW,340,2.0,7.0,89,0.00,,,0.00,Wunderground v.1.15,2013-10-01 09:42:00,
2013-10-01 05:45:00,49.6,46.5,29.99,North,360,1.0,7.0,89,0.00,,,0.00,Wunderground v.1.15,2013-10-01 09:45:00,
2013-10-01 05:47:00,49.6,46.5,29.99,NW,326,2.0,7.0,89,0.00,,,0.00,Wunderground v.1.15,2013-10-01 09:47:00,
2013-10-01 05:48:00,49.6,46.5,29.99,NW,314,3.0,7.0,89,0.00,,,0.00,Wunderground v.1.15,2013-10-01 09:48:00,
2013-10-01 05:50:00,49.7,46.6,29.99,NNW,331,3.0,8.0,89,0.00,,,0.00,Wunderground v.1.15,2013-10-01 09:50:00,
2013-10-01 05:52:00,49.7,46.6,29.99,NNW,345,4.0,8.0,89,0.00,,,0.00,Wunderground v.1.15,2013-10-01 09:52:00,
2013-10-01 05:53:00,49.7,46.6,29.99,NNW,334,5.0,8.0,89,0.00,,,0.00,Wunderground v.1.15,2013-10-01 09:53:00,
2013-10-01 05:55:00,49.7,46.6,29.99,NW,322,3.0,8.0,89,0.00,,,0.00,Wunderground v.1.15,2013-10-01 09:55:00,
2013-10-01 05:57:00,49.7,46.6,29.99,NW,319,2.0,8.0,89,0.00,,,0.00,Wunderground v.1.15,2013-10-01 09:57:00,
2013-10-01 05:58:00,49.7,46.6,29.99,NNW,346,2.0,8.0,89,0.00,,,0.00,Wunderground v.1.15,2013-10-01 09:58:00,
2013-10-01 06:00:00,49.6,46.5,29.99,North,0,2.0,-999.0,89,0.00,,,0.01,Wunderground v.1.15,2013-10-01 10:00:00,
2013-10-01 06:01:00,49.6,46.5,29.99,North,360,2.0,4.0,89,0.00,,,0.00,Wunderground v.1.15,2013-10-01 10:01:00,
2013-10-01 06:02:00,49.6,46.5,29.99,NW,317,1.0,4.0,89,0.00,,,0.00,Wunderground v.1.15,2013-10-01 10:02:00,
2013-10-01 06:03:00,49.6,46.5,29.99,North,355,3.0,4.0,89,0.00,,,0.00,Wunderground v.1.15,2013-10-01 10:03:00,
2013-10-01 06:05:00,49.5,46.4,30.00,NW,315,2.0,-999.0,89,0.00,,,0.01,Wunderground v.1.15,2013-10-01 10:05:00,
2013-10-01 06:06:00,49.6,46.5,30.00,NW,317,1.0,5.0,89,0.00,,,0.00,Wunderground v.1.15,2013-10-01 10:06:00,
2013-10-01 06:07:00,49.5,46.4,30.00,NNW,345,4.0,5.0,89,0.00,,,0.00,Wunderground v.1.15,2013-10-01 10:07:00,
2013-10-01 06:08:00,49.5,46.4,30.00,NNW,345,0.0,2.0,89,0.00,,,0.00,Wunderground v.1.15,2013-10-01 10:08:00,
2013-10-01 06:10:00,49.5,46.4,30.00,North,0,2.0,-999.0,89,0.00,,,0.01,Wunderground v.1.15,2013-10-01 10:10:00,
2013-10-01 06:11:00,49.5,46.4,30.00,North,355,2.0,5.0,89,0.00,,,0.00,Wunderground v.1.15,2013-10-01 10:11:00,
2013-10-01 06:12:00,49.6,46.5,30.00,North,355,2.0,5.0,89,0.00,,,0.00,Wunderground v.1.15,2013-10-01 10:12:00,
2013-10-01 06:13:00,49.6,46.5,30.00,NNW,346,2.0,5.0,89,0.00,,,0.00,Wunderground v.1.15,2013-10-01 10:13:00,
2013-10-01 06:15:00,49.6,46.5,30.00,NNW,338,2.0,-999.0,89,0.00,,,0.01,Wunderground v.1.15,2013-10-01 10:15:00,
2013-10-01 06:16:00,49.5,46.4,30.00,NNW,346,3.0,5.0,89,0.00,,,0.00,Wunderground v.1.15,2013-10-01 10:16:00,
2013-10-01 06:17:00,49.6,46.5,30.00,NNW,341,2.0,5.0,89,0.00,,,0.00,Wunderground v.1.15,2013-10-01 10:17:00,
2013-10-01 06:18:00,49.5,46.4,30.00,NNW,341,1.0,2.0,89,0.00,,,0.00,Wunderground v.1.15,2013-10-01 10:18:00,
2013-10-01 06:20:00,49.6,46.5,30.00,NNW,338,2.0,-999.0,89,0.00,,,0.01,Wunderground v.1.15,2013-10-01 10:20:00,
2013-10-01 06:21:00,49.6,46.5,30.00,NNW,327,1.0,4.0,89,0.00,,,0.00,Wunderground v.1.15,2013-10-01 10:21:00,
2013-10-01 06:22:00,49.6,46.5,30.00,NW,322,3.0,4.0,89,0.00,,,0.00,Wunderground v.1.15,2013-10-01 10:22:00,
2013-10-01 06:23:00,49.6,46.5,30.00,NW,322,1.0,4.0,89,0.00,,,0.00,Wunderground v.1.15,2013-10-01 10:23:00,
2013-10-01 06:25:00,49.7,46.6,30.00,NW,315,2.0,-999.0,89,0.00,,,0.01,Wunderground v.1.15,2013-10-01 10:25:00,
2013-10-01 06:27:00,49.7,46.6,30.00,NW,317,1.0,4.0,89,0.00,,,0.00,Wunderground v.1.15,2013-10-01 10:27:00,
2013-10-01 06:29:00,49.7,46.6,30.00,NNW,333,1.0,3.0,89,0.00,,,0.00,Wunderground v.1.15,2013-10-01 10:29:00,
2013-10-01 06:30:00,49.8,46.7,30.00,NNW,338,2.0,-999.0,89,0.00,,,0.01,Wunderground v.1.15,2013-10-01 10:30:00,
2013-10-01 06:32:00,49.8,46.7,30.00,NNW,339,3.0,4.0,89,0.00,,,0.00,Wunderground v.1.15,2013-10-01 10:32:00,
2013-10-01 06:34:00,49.9,46.8,30.00,NNW,346,1.0,5.0,89,0.00,,,0.00,Wunderground v.1.15,2013-10-01 10:34:00,
2013-10-01 06:35:00,49.9,46.8,30.00,NNW,338,2.0,-999.0,89,0.00,,,0.01,Wunderground v.1.15,2013-10-01 10:35:00,
2013-10-01 06:37:00,49.9,46.8,30.00,NNW,343,1.0,5.0,89,0.00,,,0.00,Wunderground v.1.15,2013-10-01 10:37:00,
2013-10-01 06:39:00,50.0,46.9,30.00,NNW,344,0.0,5.0,89,0.00,,,0.00,Wunderground v.1.15,2013-10-01 10:39:00,
2013-10-01 06:40:00,50.0,46.6,30.00,NNW,338,1.0,-999.0,88,0.00,,,0.01,Wunderground v.1.15,2013-10-01 10:40:00,
2013-10-01 06:42:00,50.0,46.9,30.00,NNW,342,0.0,5.0,89,0.00,,,0.00,Wunderground v.1.15,2013-10-01 10:42:00,
2013-10-01 06:43:00,50.0,46.9,30.00,NNW,342,0.0,5.0,89,0.00,,,0.00,Wunderground v.1.15,2013-10-01 10:43:00,
2013-10-01 06:44:00,50.0,46.6,30.00,NNW,342,1.0,5.0,88,0.00,,,0.00,Wunderground v.1.15,2013-10-01 10:44:00,
2013-10-01 06:45:00,50.1,47.0,30.00,NNW,338,2.0,-999.0,89,0.00,,,0.01,Wunderground v.1.15,2013-10-01 10:45:00,
2013-10-01 06:48:00,50.0,46.9,30.00,NNW,328,4.0,5.0,89,0.00,,,0.00,Wunderground v.1.15,2013-10-01 10:48:00,
2013-10-01 06:50:00,50.3,47.2,30.00,NW,310,1.0,4.0,89,0.00,,,0.00,Wunderground v.1.15,2013-10-01 10:50:00,
2013-10-01 06:53:00,52.7,48.9,30.00,NW,311,2.0,4.0,87,0.00,,,0.00,Wunderground v.1.15,2013-10-01 10:53:00,
2013-10-01 06:55:00,53.2,49.1,30.00,NW,311,2.0,4.0,86,0.00,,,0.00,Wunderground v.1.15,2013-10-01 10:55:00,
2013-10-01 06:58:00,54.0,49.9,30.00,NNW,335,0.0,2.0,86,0.00,,,0.00,Wunderground v.1.15,2013-10-01 10:58:00,
2013-10-01 06:59:00,54.0,49.9,30.00,NNW,335,1.0,2.0,86,0.00,,,0.00,Wunderground v.1.15,2013-10-01 10:59:00,
2013-10-01 07:00:00,54.2,50.1,30.00,NNW,335,1.0,3.0,86,0.00,,,0.00,Wunderground v.1.15,2013-10-01 11:00:00,
2013-10-01 07:04:00,53.6,50.4,30.00,NNW,340,3.0,4.0,89,0.00,,,0.00,Wunderground v.1.15,2013-10-01 11:04:00,
2013-10-01 07:05:00,53.0,49.8,30.00,NNW,340,1.0,4.0,89,0.00,,,0.00,Wunderground v.1.15,2013-10-01 11:05:00,
2013-10-01 07:09:00,52.2,48.4,30.00,NNW,340,2.0,3.0,87,0.00,,,0.00,Wunderground v.1.15,2013-10-01 11:09:00,
2013-10-01 07:10:00,51.6,47.9,30.00,NW,315,2.0,-999.0,87,0.01,,,0.01,Wunderground v.1.15,2013-10-01 11:10:00,
2013-10-01 07:11:00,51.9,48.2,30.01,NNW,335,1.0,3.0,87,0.00,,,0.00,Wunderground v.1.15,2013-10-01 11:11:00,
2013-10-01 07:14:00,51.4,47.7,30.00,NW,321,2.0,3.0,87,0.00,,,0.01,Wunderground v.1.15,2013-10-01 11:14:00,
2013-10-01 07:15:00,51.4,47.7,30.00,NW,321,1.0,3.0,87,0.00,,,0.01,Wunderground v.1.15,2013-10-01 11:15:00,
2013-10-01 07:16:00,51.3,47.6,30.00,NW,323,1.0,3.0,87,0.00,,,0.01,Wunderground v.1.15,2013-10-01 11:16:00,
2013-10-01 07:19:00,51.1,47.7,30.00,NNW,338,0.0,3.0,88,0.00,,,0.01,Wunderground v.1.15,2013-10-01 11:19:00,
2013-10-01 07:20:00,51.1,47.7,30.00,NNW,338,1.0,3.0,88,0.00,,,0.01,Wunderground v.1.15,2013-10-01 11:20:00,
2013-10-01 07:22:00,51.1,47.7,30.00,NW,324,3.0,4.0,88,0.00,,,0.01,Wunderground v.1.15,2013-10-01 11:22:00,
2013-10-01 07:24:00,51.1,47.7,30.01,NW,310,7.0,9.0,88,0.00,,,0.01,Wunderground v.1.15,2013-10-01 11:24:00,
2013-10-01 07:25:00,51.1,47.7,30.00,NW,307,1.0,9.0,88,0.00,,,0.01,Wunderground v.1.15,2013-10-01 11:25:00,
2013-10-01 07:27:00,51.2,47.8,30.01,NW,322,1.0,9.0,88,0.00,,,0.01,Wunderground v.1.15,2013-10-01 11:27:00,
2013-10-01 07:29:00,51.3,47.9,30.01,NNW,327,5.0,9.0,88,0.00,,,0.01,Wunderground v.1.15,2013-10-01 11:29:00,
2013-10-01 07:30:00,51.3,47.9,30.01,NW,313,8.0,9.0,88,0.00,,,0.01,Wunderground v.1.15,2013-10-01 11:30:00,
2013-10-01 07:32:00,51.4,48.0,30.01,NW,316,8.0,9.0,88,0.00,,,0.01,Wunderground v.1.15,2013-10-01 11:32:00,
2013-10-01 07:34:00,51.6,47.9,30.01,NW,306,7.0,9.0,87,0.00,,,0.01,Wunderground v.1.15,2013-10-01 11:34:00,
2013-10-01 07:35:00,51.7,48.0,30.01,NW,321,3.0,9.0,87,0.00,,,0.01,Wunderground v.1.15,2013-10-01 11:35:00,
2013-10-01 07:37:00,51.7,48.0,30.01,NW,306,3.0,9.0,87,0.00,,,0.01,Wunderground v.1.15,2013-10-01 11:37:00,
2013-10-01 07:40:00,51.9,48.2,30.01,NNW,348,2.0,6.0,87,0.00,,,0.01,Wunderground v.1.15,2013-10-01 11:40:00,
2013-10-01 07:42:00,52.0,48.3,30.00,NNW,335,4.0,8.0,87,0.00,,,0.01,Wunderground v.1.15,2013-10-01 11:42:00,
2013-10-01 07:45:00,52.1,48.3,30.01,NW,313,3.0,8.0,87,0.00,,,0.01,Wunderground v.1.15,2013-10-01 11:45:00,
2013-10-01 07:47:00,52.1,48.3,30.01,NW,323,2.0,8.0,87,0.00,,,0.01,Wunderground v.1.15,2013-10-01 11:47:00,
2013-10-01 07:50:00,52.3,48.5,30.01,NW,304,4.0,6.0,87,0.00,,,0.01,Wunderground v.1.15,2013-10-01 11:50:00,
2013-10-01 07:52:00,52.3,48.5,30.01,NW,319,5.0,9.0,87,0.00,,,0.01,Wunderground v.1.15,2013-10-01 11:52:00,
2013-10-01 07:55:00,52.5,48.7,30.01,NNW,327,6.0,9.0,87,0.00,,,0.01,Wunderground v.1.15,2013-10-01 11:55:00,
2013-10-01 07:57:00,52.6,48.8,30.01,NNW,335,5.0,9.0,87,0.00,,,0.01,Wunderground v.1.15,2013-10-01 11:57:00,
2013-10-01 08:00:00,52.8,48.7,30.01,NW,315,3.0,10.0,86,0.00,,,0.01,Wunderground v.1.15,2013-10-01 12:00:00,
2013-10-01 08:01:00,52.9,48.8,30.00,WNW,298,5.0,10.0,86,0.00,,,0.01,Wunderground v.1.15,2013-10-01 12:01:00,
2013-10-01 08:02:00,52.9,48.8,30.01,NNW,346,3.0,10.0,86,0.00,,,0.01,Wunderground v.1.15,2013-10-01 12:02:00,
2013-10-01 08:05:00,53.1,49.0,30.00,NW,312,4.0,10.0,86,0.00,,,0.01,Wunderground v.1.15,2013-10-01 12:05:00,
2013-10-01 08:06:00,53.1,49.0,30.00,NW,320,2.0,10.0,86,0.00,,,0.01,Wunderground v.1.15,2013-10-01 12:06:00,
2013-10-01 08:07:00,53.2,49.1,30.01,NW,322,8.0,10.0,86,0.00,,,0.01,Wunderground v.1.15,2013-10-01 12:07:00,
2013-10-01 08:10:00,53.6,49.2,30.00,NNW,338,4.0,-999.0,85,0.00,,,0.01,Wunderground v.1.15,2013-10-01 12:10:00,
2013-10-01 08:11:00,53.5,49.4,30.01,NW,318,4.0,5.0,86,0.00,,,0.01,Wunderground v.1.15,2013-10-01 12:11:00,
2013-10-01 08:13:00,53.6,49.5,30.01,NNW,342,6.0,8.0,86,0.00,,,0.01,Wunderground v.1.15,2013-10-01 12:13:00,
2013-10-01 08:15:00,54.0,49.6,30.01,NW,315,4.0,-999.0,85,0.00,,,0.01,Wunderground v.1.15,2013-10-01 12:15:00,
2013-10-01 08:16:00,53.9,49.5,30.01,WNW,295,4.0,8.0,85,0.00,,,0.01,Wunderground v.1.15,2013-10-01 12:16:00,
2013-10-01 08:17:00,54.0,49.6,30.01,NW,319,5.0,8.0,85,0.00,,,0.01,Wunderground v.1.15,2013-10-01 12:17:00,
2013-10-01 08:18:00,54.0,49.6,30.01,NW,313,2.0,8.0,85,0.00,,,0.01,Wunderground v.1.15,2013-10-01 12:18:00,
2013-10-01 08:20:00,54.5,50.1,30.01,WNW,293,3.0,-999.0,85,0.00,,,0.01,Wunderground v.1.15,2013-10-01 12:20:00,
2013-10-01 08:21:00,54.4,50.0,30.01,NW,306,5.0,9.0,85,0.00,,,0.01,Wunderground v.1.15,2013-10-01 12:21:00,
2013-10-01 08:22:00,54.4,50.0,30.01,WNW,288,3.0,9.0,85,0.00,,,0.01,Wunderground v.1.15,2013-10-01 12:22:00,
2013-10-01 08:25:00,54.9,50.2,30.01,NW,315,3.0,-999.0,84,0.00,,,0.01,Wunderground v.1.15,2013-10-01 12:25:00,
2013-10-01 08:26:00,54.8,50.4,30.01,NW,325,4.0,9.0,85,0.00,,,0.01,Wunderground v.1.15,2013-10-01 12:26:00,
2013-10-01 08:27:00,54.9,50.5,30.01,WNW,288,3.0,9.0,85,0.00,,,0.01,Wunderground v.1.15,2013-10-01 12:27:00,
2013-10-01 08:29:00,55.0,50.3,30.01,NW,314,4.0,6.0,84,0.00,,,0.01,Wunderground v.1.15,2013-10-01 12:29:00,
2013-10-01 08:30:00,55.3,50.5,30.01,NW,315,4.0,-999.0,84,0.00,,,0.01,Wunderground v.1.15,2013-10-01 12:30:00,
2013-10-01 08:32:00,55.3,50.5,30.01,NW,321,2.0,7.0,84,0.00,,,0.01,Wunderground v.1.15,2013-10-01 12:32:00,
2013-10-01 08:34:00,55.5,50.7,30.01,NNW,329,5.0,7.0,84,0.00,,,0.01,Wunderground v.1.15,2013-10-01 12:34:00,
2013-10-01 08:35:00,55.8,51.0,30.01,NW,315,4.0,-999.0,84,0.00,,,0.01,Wunderground v.1.15,2013-10-01 12:35:00,
2013-10-01 08:37:00,55.8,51.0,30.01,WNW,298,2.0,7.0,84,0.00,,,0.01,Wunderground v.1.15,2013-10-01 12:37:00,
2013-10-01 08:38:00,55.8,51.0,30.01,NW,321,2.0,7.0,84,0.00,,,0.01,Wunderground v.1.15,2013-10-01 12:38:00,
2013-10-01 08:39:00,55.9,51.1,30.01,West,278,3.0,6.0,84,0.00,,,0.01,Wunderground v.1.15,2013-10-01 12:39:00,
2013-10-01 08:40:00,56.2,51.1,30.01,NW,315,2.0,-999.0,83,0.00,,,0.01,Wunderground v.1.15,2013-10-01 12:40:00,
2013-10-01 08:42:00,56.2,51.1,30.01,NW,308,2.0,7.0,83,0.00,,,0.01,Wunderground v.1.15,2013-10-01 12:42:00,
2013-10-01 08:43:00,56.3,51.2,30.01,NW,309,0.0,7.0,83,0.00,,,0.01,Wunderground v.1.15,2013-10-01 12:43:00,
2013-10-01 08:44:00,56.4,51.3,30.01,NW,309,1.0,7.0,83,0.00,,,0.01,Wunderground v.1.15,2013-10-01 12:44:00,
2013-10-01 08:45:00,56.8,51.4,30.01,NW,315,3.0,-999.0,82,0.00,,,0.01,Wunderground v.1.15,2013-10-01 12:45:00,
2013-10-01 08:47:00,56.8,51.7,30.01,WNW,294,3.0,7.0,83,0.00,,,0.01,Wunderground v.1.15,2013-10-01 12:47:00,
2013-10-01 08:48:00,56.8,51.7,30.01,NW,322,8.0,8.0,83,0.00,,,0.01,Wunderground v.1.15,2013-10-01 12:48:00,
2013-10-01 08:49:00,57.0,51.6,30.01,NNW,336,4.0,8.0,82,0.00,,,0.01,Wunderground v.1.15,2013-10-01 12:49:00,
2013-10-01 08:50:00,57.3,51.5,30.01,WNW,293,4.0,-999.0,81,0.00,,,0.01,Wunderground v.1.15,2013-10-01 12:50:00,
2013-10-01 08:53:00,57.3,51.5,30.01,WNW,288,3.0,8.0,81,0.00,,,0.01,Wunderground v.1.15,2013-10-01 12:53:00,
2013-10-01 08:55:00,57.5,51.7,30.01,NW,313,4.0,8.0,81,0.00,,,0.01,Wunderground v.1.15,2013-10-01 12:55:00,
2013-10-01 08:58:00,57.7,51.9,30.01,WNW,294,2.0,4.0,81,0.00,,,0.01,Wunderground v.1.15,2013-10-01 12:58:00,
2013-10-01 09:00:00,57.9,52.1,30.01,NW,320,4.0,4.0,81,0.00,,,0.01,Wunderground v.1.15,2013-10-01 13:00:00,
2013-10-01 09:03:00,58.1,52.3,30.01,NW,305,2.0,7.0,81,0.00,,,0.01,Wunderground v.1.15,2013-10-01 13:03:00,
2013-10-01 09:05:00,58.4,52.3,30.01,West,281,4.0,7.0,80,0.00,,,0.01,Wunderground v.1.15,2013-10-01 13:05:00,
2013-10-01 09:08:00,58.7,52.5,30.01,NW,310,4.0,4.0,80,0.00,,,0.01,Wunderground v.1.15,2013-10-01 13:08:00,
2013-10-01 09:10:00,59.0,52.8,30.01,WNW,294,3.0,7.0,80,0.00,,,0.01,Wunderground v.1.15,2013-10-01 13:10:00,
2013-10-01 09:13:00,59.3,52.8,30.01,NW,305,4.0,8.0,79,0.00,,,0.01,Wunderground v.1.15,2013-10-01 13:13:00,
2013-10-01 09:15:00,59.5,53.0,30.01,WNW,284,6.0,8.0,79,0.00,,,0.01,Wunderground v.1.15,2013-10-01 13:15:00,
2013-10-01 09:18:00,59.9,53.0,30.01,WNW,299,3.0,6.0,78,0.00,,,0.01,Wunderground v.1.15,2013-10-01 13:18:00,
2013-10-01 09:20:00,60.0,53.1,30.01,WNW,301,3.0,6.0,78,0.00,,,0.01,Wunderground v.1.15,2013-10-01 13:20:00,
2013-10-01 09:23:00,60.4,53.2,30.01,NW,320,3.0,8.0,77,0.00,,,0.01,Wunderground v.1.15,2013-10-01 13:23:00,
2013-10-01 09:25:00,60.6,53.3,30.01,NW,304,7.0,8.0,77,0.00,,,0.01,Wunderground v.1.15,2013-10-01 13:25:00,
2013-10-01 09:26:00,60.6,53.3,30.01,NW,311,4.0,8.0,77,0.00,,,0.01,Wunderground v.1.15,2013-10-01 13:26:00,
2013-10-01 09:28:00,60.9,53.6,30.01,NNW,334,3.0,7.0,77,0.00,,,0.01,Wunderground v.1.15,2013-10-01 13:28:00,
2013-10-01 09:30:00,61.1,53.5,30.01,WNW,298,3.0,7.0,76,0.00,,,0.01,Wunderground v.1.15,2013-10-01 13:30:00,
2013-10-01 09:31:00,61.2,53.6,30.01,NW,306,7.0,7.0,76,0.00,,,0.01,Wunderground v.1.15,2013-10-01 13:31:00,
2013-10-01 09:34:00,61.5,53.5,30.01,NNW,331,4.0,10.0,75,0.00,,,0.01,Wunderground v.1.15,2013-10-01 13:34:00,
2013-10-01 09:35:00,61.7,53.7,30.01,WSW,246,0.0,10.0,75,0.00,,,0.01,Wunderground v.1.15,2013-10-01 13:35:00,
2013-10-01 09:36:00,61.7,53.7,30.01,WSW,246,2.0,10.0,75,0.00,,,0.01,Wunderground v.1.15,2013-10-01 13:36:00,
2013-10-01 09:40:00,62.0,53.6,30.01,WNW,298,4.0,8.0,74,0.00,,,0.01,Wunderground v.1.15,2013-10-01 13:40:00,
2013-10-01 09:41:00,62.2,53.8,30.01,WNW,284,1.0,8.0,74,0.00,,,0.01,Wunderground v.1.15,2013-10-01 13:41:00,
2013-10-01 09:45:00,62.5,54.1,30.01,NW,321,3.0,8.0,74,0.00,,,0.01,Wunderground v.1.15,2013-10-01 13:45:00,
2013-10-01 09:46:00,62.6,54.2,30.01,West,273,2.0,8.0,74,0.00,,,0.01,Wunderground v.1.15,2013-10-01 13:46:00,
2013-10-01 09:50:00,63.0,54.6,30.00,NW,315,4.0,7.0,74,0.00,,,0.01,Wunderground v.1.15,2013-10-01 13:50:00,
2013-10-01 09:51:00,63.1,54.7,30.00,NW,319,6.0,8.0,74,0.00,,,0.01,Wunderground v.1.15,2013-10-01 13:51:00,
2013-10-01 09:55:00,63.5,54.7,30.00,NNW,340,0.0,8.0,73,0.00,,,0.01,Wunderground v.1.15,2013-10-01 13:55:00,
2013-10-01 09:56:00,63.6,54.8,30.00,NNW,340,2.0,8.0,73,0.00,,,0.01,Wunderground v.1.15,2013-10-01 13:56:00,
2013-10-01 10:00:00,64.1,54.1,30.00,NNE,15,5.0,6.0,70,0.00,,,0.01,Wunderground v.1.15,2013-10-01 14:00:00,
2013-10-01 10:01:00,64.1,54.1,30.00,WNW,300,2.0,6.0,70,0.00,,,0.01,Wunderground v.1.15,2013-10-01 14:01:00,
2013-10-01 10:05:00,64.6,53.4,30.00,WNW,301,4.0,8.0,67,0.00,,,0.01,Wunderground v.1.15,2013-10-01 14:05:00,
2013-10-01 10:06:00,64.6,53.4,30.00,West,267,4.0,8.0,67,0.00,,,0.01,Wunderground v.1.15,2013-10-01 14:06:00,
2013-10-01 10:10:00,65.2,54.0,30.00,NW,306,4.0,8.0,67,0.00,,,0.01,Wunderground v.1.15,2013-10-01 14:10:00,
2013-10-01 10:11:00,65.2,54.0,30.00,West,260,4.0,8.0,67,0.00,,,0.01,Wunderground v.1.15,2013-10-01 14:11:00,
2013-10-01 10:15:00,65.7,54.0,30.00,WNW,286,3.0,10.0,66,0.00,,,0.01,Wunderground v.1.15,2013-10-01 14:15:00,
2013-10-01 10:16:00,65.8,54.1,30.00,WSW,256,7.0,10.0,66,0.00,,,0.01,Wunderground v.1.15,2013-10-01 14:16:00,
2013-10-01 10:20:00,66.3,53.8,29.99,NW,315,3.0,-999.0,64,0.00,,,0.01,Wunderground v.1.15,2013-10-01 14:20:00,
2013-10-01 10:21:00,66.1,53.6,30.00,West,276,3.0,9.0,64,0.00,,,0.01,Wunderground v.1.15,2013-10-01 14:21:00,
2013-10-01 10:22:00,66.2,53.7,30.00,WNW,293,3.0,9.0,64,0.00,,,0.01,Wunderground v.1.15,2013-10-01 14:22:00,
2013-10-01 10:25:00,66.8,54.2,29.99,NW,315,2.0,-999.0,64,0.00,,,0.01,Wunderground v.1.15,2013-10-01 14:25:00,
2013-10-01 10:30:00,67.4,53.0,29.99,WNW,293,2.0,-999.0,60,0.00,,,0.01,Wunderground v.1.15,2013-10-01 14:30:00,
2013-10-01 10:35:00,68.0,54.0,29.99,NW,315,1.0,-999.0,61,0.00,,,0.01,Wunderground v.1.15,2013-10-01 14:35:00,
2013-10-01 10:40:00,68.5,53.1,29.99,WNW,293,3.0,-999.0,58,0.00,,,0.01,Wunderground v.1.15,2013-10-01 14:40:00,
2013-10-01 10:45:00,68.7,53.3,29.99,West,270,3.0,-999.0,58,0.00,,,0.01,Wunderground v.1.15,2013-10-01 14:45:00,
2013-10-01 10:50:00,69.1,52.7,29.99,WNW,293,3.0,-999.0,56,0.00,,,0.01,Wunderground v.1.15,2013-10-01 14:50:00,
2013-10-01 10:55:00,69.3,52.9,29.99,WNW,293,3.0,-999.0,56,0.00,,,0.01,Wunderground v.1.15,2013-10-01 14:55:00,
2013-10-01 11:00:00,69.6,52.7,29.99,NW,315,2.0,-999.0,55,0.00,,,0.01,Wunderground v.1.15,2013-10-01 15:00:00,
2013-10-01 11:05:00,69.8,52.9,29.99,WNW,293,2.0,-999.0,55,0.00,,,0.01,Wunderground v.1.15,2013-10-01 15:05:00,
2013-10-01 11:10:00,70.2,52.3,29.99,WNW,293,3.0,-999.0,53,0.00,,,0.01,Wunderground v.1.15,2013-10-01 15:10:00,
2013-10-01 11:15:00,70.2,52.3,29.98,West,270,4.0,-999.0,53,0.00,,,0.01,Wunderground v.1.15,2013-10-01 15:15:00,
2013-10-01 11:20:00,70.4,51.4,29.98,West,270,3.0,-999.0,51,0.00,,,0.01,Wunderground v.1.15,2013-10-01 15:20:00,
2013-10-01 11:25:00,70.6,51.6,29.98,WNW,293,3.0,-999.0,51,0.00,,,0.01,Wunderground v.1.15,2013-10-01 15:25:00,
2013-10-01 11:30:00,70.6,52.1,29.98,NW,315,3.0,-999.0,52,0.00,,,0.01,Wunderground v.1.15,2013-10-01 15:30:00,
2013-10-01 11:35:00,71.0,51.4,29.97,North,0,2.0,-999.0,50,0.00,,,0.01,Wunderground v.1.15,2013-10-01 15:35:00,
2013-10-01 11:40:00,70.9,50.8,29.97,WNW,293,7.0,-999.0,49,0.00,,,0.01,Wunderground v.1.15,2013-10-01 15:40:00,
2013-10-01 11:45:00,70.4,50.9,29.97,WNW,293,5.0,-999.0,50,0.00,,,0.01,Wunderground v.1.15,2013-10-01 15:45:00,
2013-10-01 11:50:00,70.5,52.0,29.97,NW,315,4.0,-999.0,52,0.00,,,0.01,Wunderground v.1.15,2013-10-01 15:50:00,
2013-10-01 11:55:00,70.9,51.9,29.97,WNW,293,1.0,-999.0,51,0.00,,,0.01,Wunderground v.1.15,2013-10-01 15:55:00,
2013-10-01 12:00:00,71.4,52.3,29.96,WNW,293,5.0,-999.0,51,0.00,,,0.01,Wunderground v.1.15,2013-10-01 16:00:00,
2013-10-01 12:02:00,72.2,51.4,29.95,NNW,331,4.0,11.0,48,0.00,,,0.01,Wunderground v.1.15,2013-10-01 16:02:00,
2013-10-01 12:03:00,72.2,51.4,29.95,NNW,332,2.0,11.0,48,0.00,,,0.01,Wunderground v.1.15,2013-10-01 16:03:00,
2013-10-01 12:04:00,72.2,52.5,29.95,West,261,4.0,11.0,50,0.00,,,0.01,Wunderground v.1.15,2013-10-01 16:04:00,
2013-10-01 12:05:00,72.2,52.0,29.95,ESE,115,6.0,11.0,49,0.00,,,0.01,Wunderground v.1.15,2013-10-01 16:05:00,
2013-10-01 12:06:00,72.2,52.0,29.95,ESE,103,4.0,11.0,49,0.00,,,0.01,Wunderground v.1.15,2013-10-01 16:06:00,
2013-10-01 12:07:00,72.2,52.0,29.95,WNW,286,3.0,11.0,49,0.00,,,0.01,Wunderground v.1.15,2013-10-01 16:07:00,
2013-10-01 12:08:00,72.2,52.0,29.95,East,83,3.0,11.0,49,0.00,,,0.01,Wunderground v.1.15,2013-10-01 16:08:00,
2013-10-01 12:10:00,71.5,52.4,29.96,WNW,293,4.0,-999.0,51,0.00,,,0.01,Wunderground v.1.15,2013-10-01 16:10:00,
2013-10-01 12:15:00,71.6,51.4,29.96,West,270,4.0,-999.0,49,0.00,,,0.01,Wunderground v.1.15,2013-10-01 16:15:00,
2013-10-01 12:20:00,71.9,51.7,29.96,West,270,2.0,-999.0,49,0.00,,,0.01,Wunderground v.1.15,2013-10-01 16:20:00,
2013-10-01 12:25:00,72.1,52.4,29.95,WSW,248,3.0,-999.0,50,0.00,,,0.01,Wunderground v.1.15,2013-10-01 16:25:00,
2013-10-01 12:27:00,72.0,51.8,29.95,WSW,248,3.0,3.0,49,0.00,,,0.01,Wunderground v.1.15,2013-10-01 16:27:00,
2013-10-01 12:30:00,72.2,52.0,29.95,NW,315,4.0,-999.0,49,0.00,,,0.01,Wunderground v.1.15,2013-10-01 16:30:00,
2013-10-01 12:32:00,72.2,52.5,29.95,West,271,4.0,11.0,50,0.00,,,0.01,Wunderground v.1.15,2013-10-01 16:32:00,
2013-10-01 12:35:00,72.4,52.2,29.95,West,270,3.0,-999.0,49,0.00,,,0.01,Wunderground v.1.15,2013-10-01 16:35:00,
2013-10-01 12:36:00,72.2,52.0,29.95,East,79,1.0,11.0,49,0.00,,,0.01,Wunderground v.1.15,2013-10-01 16:36:00,
2013-10-01 12:37:00,72.4,52.2,29.95,WNW,300,4.0,11.0,49,0.00,,,0.01,Wunderground v.1.15,2013-10-01 16:37:00,
2013-10-01 12:40:00,72.7,50.1,29.95,NNW,338,4.0,-999.0,45,0.00,,,0.01,Wunderground v.1.15,2013-10-01 16:40:00,
2013-10-01 12:41:00,72.7,50.7,29.95,WSW,250,2.0,12.0,46,0.00,,,0.01,Wunderground v.1.15,2013-10-01 16:41:00,
2013-10-01 12:42:00,72.7,50.7,29.95,NNW,329,1.0,12.0,46,0.00,,,0.01,Wunderground v.1.15,2013-10-01 16:42:00,
2013-10-01 12:43:00,72.7,51.3,29.95,NW,325,4.0,12.0,47,0.00,,,0.01,Wunderground v.1.15,2013-10-01 16:43:00,
2013-10-01 12:45:00,72.8,50.8,29.95,West,270,3.0,-999.0,46,0.00,,,0.01,Wunderground v.1.15,2013-10-01 16:45:00,
2013-10-01 12:47:00,72.8,50.8,29.95,NW,314,4.0,12.0,46,0.00,,,0.01,Wunderground v.1.15,2013-10-01 16:47:00,
2013-10-01 12:48:00,72.8,51.4,29.95,WSW,240,1.0,12.0,47,0.00,,,0.01,Wunderground v.1.15,2013-10-01 16:48:00,
2013-10-01 12:50:00,72.9,51.5,29.94,NW,315,3.0,-999.0,47,0.00,,,0.01,Wunderground v.1.15,2013-10-01 16:50:00,
2013-10-01 12:52:00,72.9,50.9,29.95,NW,309,1.0,6.0,46,0.00,,,0.01,Wunderground v.1.15,2013-10-01 16:52:00,
2013-10-01 12:53:00,72.9,50.9,29.95,NW,309,0.0,6.0,46,0.00,,,0.01,Wunderground v.1.15,2013-10-01 16:53:00,
2013-10-01 12:55:00,72.8,52.0,29.94,West,270,2.0,-999.0,48,0.00,,,0.01,Wunderground v.1.15,2013-10-01 16:55:00,
2013-10-01 12:57:00,72.7,51.9,29.94,West,267,1.0,7.0,48,0.00,,,0.01,Wunderground v.1.15,2013-10-01 16:57:00,
2013-10-01 12:58:00,72.8,52.0,29.94,NW,322,3.0,7.0,48,0.00,,,0.01,Wunderground v.1.15,2013-10-01 16:58:00,
2013-10-01 13:00:00,73.0,51.0,29.94,West,270,4.0,-999.0,46,0.00,,,0.01,Wunderground v.1.15,2013-10-01 17:00:00,
2013-10-01 13:02:00,73.0,51.0,29.94,NW,315,3.0,10.0,46,0.00,,,0.01,Wunderground v.1.15,2013-10-01 17:02:00,
2013-10-01 13:03:00,73.0,51.0,29.94,NW,315,1.0,10.0,46,0.00,,,0.01,Wunderground v.1.15,2013-10-01 17:03:00,
2013-10-01 13:05:00,72.4,52.2,29.94,NW,315,4.0,-999.0,49,0.00,,,0.01,Wunderground v.1.15,2013-10-01 17:05:00,
2013-10-01 13:08:00,72.2,50.8,29.94,NW,323,4.0,4.0,47,0.00,,,0.01,Wunderground v.1.15,2013-10-01 17:08:00,
2013-10-01 13:10:00,72.5,51.1,29.93,SSW,203,1.0,-999.0,47,0.00,,,0.01,Wunderground v.1.15,2013-10-01 17:10:00,
2013-10-01 13:13:00,72.6,51.8,29.93,SSW,196,0.0,4.0,48,0.00,,,0.01,Wunderground v.1.15,2013-10-01 17:13:00,
2013-10-01 13:14:00,72.7,51.9,29.93,WSW,244,3.0,4.0,48,0.00,,,0.01,Wunderground v.1.15,2013-10-01 17:14:00,
2013-10-01 13:15:00,73.0,51.6,29.93,WNW,293,4.0,-999.0,47,0.00,,,0.01,Wunderground v.1.15,2013-10-01 17:15:00,
2013-10-01 13:18:00,73.0,51.6,29.93,SW,230,4.0,6.0,47,0.00,,,0.01,Wunderground v.1.15,2013-10-01 17:18:00,
2013-10-01 13:19:00,73.0,51.6,29.93,SW,230,6.0,6.0,47,0.00,,,0.01,Wunderground v.1.15,2013-10-01 17:19:00,
2013-10-01 13:20:00,72.9,52.1,29.93,WSW,248,4.0,-999.0,48,0.00,,,0.01,Wunderground v.1.15,2013-10-01 17:20:00,
2013-10-01 13:23:00,72.8,52.0,29.93,WNW,286,6.0,8.0,48,0.00,,,0.01,Wunderground v.1.15,2013-10-01 17:23:00,
2013-10-01 13:24:00,72.8,52.0,29.93,WSW,243,3.0,8.0,48,0.00,,,0.01,Wunderground v.1.15,2013-10-01 17:24:00,
2013-10-01 13:25:00,73.2,52.3,29.93,WSW,248,3.0,-999.0,48,0.00,,,0.01,Wunderground v.1.15,2013-10-01 17:25:00,
2013-10-01 13:29:00,73.4,51.9,29.93,West,265,3.0,7.0,47,0.00,,,0.01,Wunderground v.1.15,2013-10-01 17:29:00,
2013-10-01 13:30:00,73.3,50.7,29.93,WNW,293,5.0,-999.0,45,0.00,,,0.01,Wunderground v.1.15,2013-10-01 17:30:00,
2013-10-01 13:34:00,73.4,50.8,29.93,WNW,284,7.0,8.0,45,0.00,,,0.01,Wunderground v.1.15,2013-10-01 17:34:00,
2013-10-01 13:35:00,73.4,51.4,29.93,WNW,293,4.0,-999.0,46,0.00,,,0.01,Wunderground v.1.15,2013-10-01 17:35:00,
2013-10-01 13:39:00,73.5,51.4,29.93,WNW,303,7.0,7.0,46,0.00,,,0.01,Wunderground v.1.15,2013-10-01 17:39:00,
2013-10-01 13:40:00,73.5,52.0,29.92,West,270,6.0,-999.0,47,0.00,,,0.01,Wunderground v.1.15,2013-10-01 17:40:00,
2013-10-01 13:45:00,73.2,51.8,29.92,WNW,283,3.0,9.0,47,0.00,,,0.01,Wunderground v.1.15,2013-10-01 17:45:00,
2013-10-01 13:46:00,73.2,51.8,29.92,WNW,286,3.0,9.0,47,0.00,,,0.01,Wunderground v.1.15,2013-10-01 17:46:00,
2013-10-01 13:50:00,73.3,50.7,29.92,WSW,255,3.0,12.0,45,0.00,,,0.01,Wunderground v.1.15,2013-10-01 17:50:00,
2013-10-01 13:51:00,73.4,51.4,29.92,WSW,256,3.0,12.0,46,0.00,,,0.01,Wunderground v.1.15,2013-10-01 17:51:00,
2013-10-01 13:55:00,74.0,51.3,29.92,WSW,252,3.0,12.0,45,0.00,,,0.01,Wunderground v.1.15,2013-10-01 17:55:00,
2013-10-01 13:56:00,74.2,52.1,29.92,ENE,58,2.0,12.0,46,0.00,,,0.01,Wunderground v.1.15,2013-10-01 17:56:00,
2013-10-01 14:00:00,74.5,51.2,29.92,SW,232,8.0,11.0,44,0.00,,,0.01,Wunderground v.1.15,2013-10-01 18:00:00,
2013-10-01 14:01:00,74.1,50.8,29.92,West,263,7.0,11.0,44,0.00,,,0.01,Wunderground v.1.15,2013-10-01 18:01:00,
2013-10-01 14:05:00,73.9,51.8,29.92,NW,307,2.0,11.0,46,0.00,,,0.01,Wunderground v.1.15,2013-10-01 18:05:00,
2013-10-01 14:06:00,74.0,51.9,29.91,West,275,0.0,11.0,46,0.00,,,0.01,Wunderground v.1.15,2013-10-01 18:06:00,
2013-10-01 14:10:00,74.9,52.7,29.92,NNW,348,5.0,10.0,46,0.00,,,0.01,Wunderground v.1.15,2013-10-01 18:10:00,
2013-10-01 14:11:00,74.8,51.4,29.91,West,273,6.0,10.0,44,0.00,,,0.01,Wunderground v.1.15,2013-10-01 18:11:00,
2013-10-01 14:15:00,74.4,51.1,29.91,NNW,340,4.0,10.0,44,0.00,,,0.01,Wunderground v.1.15,2013-10-01 18:15:00,
2013-10-01 14:16:00,74.4,51.1,29.91,NNW,333,3.0,10.0,44,0.00,,,0.01,Wunderground v.1.15,2013-10-01 18:16:00,
2013-10-01 14:20:00,75.1,51.1,29.91,WNW,293,3.0,-999.0,43,0.00,,,0.01,Wunderground v.1.15,2013-10-01 18:20:00,
2013-10-01 14:21:00,74.9,51.5,29.91,SSW,209,1.0,6.0,44,0.00,,,0.01,Wunderground v.1.15,2013-10-01 18:21:00,
2013-10-01 14:22:00,75.0,51.6,29.91,South,187,1.0,6.0,44,0.00,,,0.01,Wunderground v.1.15,2013-10-01 18:22:00,
2013-10-01 14:25:00,75.2,50.5,29.92,NW,315,5.0,-999.0,42,0.00,,,0.01,Wunderground v.1.15,2013-10-01 18:25:00,
2013-10-01 14:26:00,75.2,51.2,29.91,NW,305,1.0,8.0,43,0.00,,,0.01,Wunderground v.1.15,2013-10-01 18:26:00,
2013-10-01 14:27:00,75.2,51.2,29.91,NNW,334,2.0,8.0,43,0.00,,,0.01,Wunderground v.1.15,2013-10-01 18:27:00,
2013-10-01 14:30:00,74.8,51.4,29.91,NW,315,4.0,-999.0,44,0.00,,,0.01,Wunderground v.1.15,2013-10-01 18:30:00,
2013-10-01 14:31:00,74.8,50.8,29.92,WNW,289,3.0,14.0,43,0.00,,,0.01,Wunderground v.1.15,2013-10-01 18:31:00,
2013-10-01 14:32:00,74.8,50.8,29.92,NW,315,2.0,14.0,43,0.00,,,0.01,Wunderground v.1.15,2013-10-01 18:32:00,
2013-10-01 14:35:00,74.7,50.7,29.92,WNW,293,8.0,-999.0,43,0.00,,,0.01,Wunderground v.1.15,2013-10-01 18:35:00,
2013-10-01 14:36:00,74.8,50.8,29.92,WNW,297,4.0,14.0,43,0.00,,,0.01,Wunderground v.1.15,2013-10-01 18:36:00,
2013-10-01 14:37:00,74.8,50.8,29.92,NE,42,4.0,14.0,43,0.00,,,0.01,Wunderground v.1.15,2013-10-01 18:37:00,
2013-10-01 14:40:00,74.4,51.1,29.91,WNW,293,4.0,-999.0,44,0.00,,,0.01,Wunderground v.1.15,2013-10-01 18:40:00,
2013-10-01 14:41:00,74.4,50.4,29.92,NNW,328,6.0,13.0,43,0.00,,,0.01,Wunderground v.1.15,2013-10-01 18:41:00,
2013-10-01 14:42:00,74.3,50.4,29.91,WNW,296,3.0,13.0,43,0.00,,,0.01,Wunderground v.1.15,2013-10-01 18:42:00,
2013-10-01 14:45:00,74.6,51.9,29.91,NW,315,3.0,-999.0,45,0.00,,,0.01,Wunderground v.1.15,2013-10-01 18:45:00,
2013-10-01 14:46:00,74.6,51.9,29.91,West,275,2.0,13.0,45,0.00,,,0.01,Wunderground v.1.15,2013-10-01 18:46:00,
2013-10-01 14:47:00,74.6,51.2,29.91,NW,315,2.0,13.0,44,0.00,,,0.01,Wunderground v.1.15,2013-10-01 18:47:00,
2013-10-01 14:50:00,75.1,51.7,29.91,WNW,293,4.0,-999.0,44,0.00,,,0.01,Wunderground v.1.15,2013-10-01 18:50:00,
2013-10-01 14:51:00,75.1,52.3,29.91,WNW,297,0.0,6.0,45,0.00,,,0.01,Wunderground v.1.15,2013-10-01 18:51:00,
2013-10-01 14:52:00,75.2,52.4,29.91,West,277,7.0,7.0,45,0.00,,,0.01,Wunderground v.1.15,2013-10-01 18:52:00,
2013-10-01 14:53:00,75.3,51.9,29.91,WNW,284,12.0,12.0,44,0.00,,,0.01,Wunderground v.1.15,2013-10-01 18:53:00,
2013-10-01 14:55:00,75.3,51.9,29.91,NNE,23,2.0,-999.0,44,0.00,,,0.01,Wunderground v.1.15,2013-10-01 18:55:00,
2013-10-01 14:56:00,75.2,51.8,29.91,WNW,290,2.0,12.0,44,0.00,,,0.01,Wunderground v.1.15,2013-10-01 18:56:00,
2013-10-01 14:57:00,75.3,51.3,29.91,West,270,2.0,12.0,43,0.00,,,0.01,Wunderground v.1.15,2013-10-01 18:57:00,
2013-10-01 14:58:00,75.4,51.3,29.91,NNE,18,3.0,12.0,43,0.00,,,0.01,Wunderground v.1.15,2013-10-01 18:58:00,
2013-10-01 15:00:00,75.7,52.2,29.90,NNE,23,1.0,-999.0,44,0.00,,,0.01,Wunderground v.1.15,2013-10-01 19:00:00,
2013-10-01 15:01:00,75.6,52.1,29.91,NNE,20,1.0,4.0,44,0.00,,,0.01,Wunderground v.1.15,2013-10-01 19:01:00,
2013-10-01 15:02:00,75.7,52.2,29.91,NW,312,2.0,4.0,44,0.00,,,0.01,Wunderground v.1.15,2013-10-01 19:02:00,
2013-10-01 15:03:00,75.7,52.2,29.91,NW,312,1.0,4.0,44,0.00,,,0.01,Wunderground v.1.15,2013-10-01 19:03:00,
2013-10-01 15:05:00,76.0,52.5,29.90,WSW,248,4.0,-999.0,44,0.00,,,0.01,Wunderground v.1.15,2013-10-01 19:05:00,
2013-10-01 15:06:00,76.2,52.1,29.90,West,270,3.0,4.0,43,0.00,,,0.01,Wunderground v.1.15,2013-10-01 19:06:00,
2013-10-01 15:07:00,76.2,52.1,29.90,NW,319,6.0,10.0,43,0.00,,,0.01,Wunderground v.1.15,2013-10-01 19:07:00,
2013-10-01 15:08:00,76.1,52.0,29.90,WNW,284,9.0,10.0,43,0.00,,,0.01,Wunderground v.1.15,2013-10-01 19:08:00,
2013-10-01 15:10:00,75.8,52.3,29.90,West,270,5.0,-999.0,44,0.00,,,0.01,Wunderground v.1.15,2013-10-01 19:10:00,
2013-10-01 15:12:00,75.8,52.3,29.90,West,269,8.0,9.0,44,0.00,,,0.01,Wunderground v.1.15,2013-10-01 19:12:00,
2013-10-01 15:13:00,75.8,52.3,29.90,NW,308,4.0,9.0,44,0.00,,,0.01,Wunderground v.1.15,2013-10-01 19:13:00,
2013-10-01 15:15:00,75.4,52.6,29.90,NW,315,5.0,-999.0,45,0.00,,,0.01,Wunderground v.1.15,2013-10-01 19:15:00,
2013-10-01 15:17:00,75.5,52.1,29.90,NW,322,6.0,12.0,44,0.00,,,0.01,Wunderground v.1.15,2013-10-01 19:17:00,
2013-10-01 15:19:00,75.2,51.8,29.90,NNW,327,4.0,11.0,44,0.00,,,0.01,Wunderground v.1.15,2013-10-01 19:19:00,
2013-10-01 15:20:00,75.2,53.0,29.90,West,270,4.0,-999.0,46,0.00,,,0.01,Wunderground v.1.15,2013-10-01 19:20:00,
2013-10-01 15:22:00,75.2,53.0,29.90,West,273,2.0,11.0,46,0.00,,,0.01,Wunderground v.1.15,2013-10-01 19:22:00,
2013-10-01 15:24:00,75.2,53.0,29.90,NW,306,8.0,11.0,46,0.00,,,0.01,Wunderground v.1.15,2013-10-01 19:24:00,
2013-10-01 15:25:00,75.2,53.0,29.90,WNW,293,2.0,-999.0,46,0.00,,,0.01,Wunderground v.1.15,2013-10-01 19:25:00,
2013-10-01 15:28:00,75.2,53.0,29.90,WNW,297,3.0,4.0,46,0.00,,,0.01,Wunderground v.1.15,2013-10-01 19:28:00,
2013-10-01 15:29:00,75.3,53.1,29.90,SW,234,5.0,5.0,46,0.00,,,0.01,Wunderground v.1.15,2013-10-01 19:29:00,
2013-10-01 15:30:00,75.3,53.1,29.90,WNW,293,6.0,-999.0,46,0.00,,,0.01,Wunderground v.1.15,2013-10-01 19:30:00,
2013-10-01 15:33:00,75.4,53.2,29.90,WNW,300,8.0,12.0,46,0.00,,,0.01,Wunderground v.1.15,2013-10-01 19:33:00,
2013-10-01 15:34:00,75.2,53.0,29.90,NNW,345,2.0,12.0,46,0.00,,,0.01,Wunderground v.1.15,2013-10-01 19:34:00,
2013-10-01 15:35:00,75.1,52.9,29.89,NNW,338,3.0,-999.0,46,0.00,,,0.01,Wunderground v.1.15,2013-10-01 19:35:00,
2013-10-01 15:38:00,75.0,53.4,29.90,NNW,327,2.0,4.0,47,0.00,,,0.01,Wunderground v.1.15,2013-10-01 19:38:00,
2013-10-01 15:40:00,75.2,53.0,29.90,West,280,6.0,7.0,46,0.00,,,0.01,Wunderground v.1.15,2013-10-01 19:40:00,
2013-10-01 15:43:00,75.2,53.0,29.89,WNW,302,3.0,7.0,46,0.00,,,0.01,Wunderground v.1.15,2013-10-01 19:43:00,
2013-10-01 15:45:00,75.4,54.3,29.90,West,276,1.0,7.0,48,0.00,,,0.01,Wunderground v.1.15,2013-10-01 19:45:00,
2013-10-01 15:48:00,75.8,53.5,29.90,WNW,289,8.0,9.0,46,0.00,,,0.01,Wunderground v.1.15,2013-10-01 19:48:00,
2013-10-01 15:50:00,75.4,53.2,29.90,NW,315,6.0,-999.0,46,0.00,,,0.01,Wunderground v.1.15,2013-10-01 19:50:00,
2013-10-01 15:51:00,75.6,53.4,29.90,West,264,7.0,12.0,46,0.00,,,0.01,Wunderground v.1.15,2013-10-01 19:51:00,
2013-10-01 15:53:00,75.2,53.0,29.90,West,275,8.0,12.0,46,0.00,,,0.01,Wunderground v.1.15,2013-10-01 19:53:00,
2013-10-01 15:55:00,75.0,54.0,29.89,WNW,293,4.0,-999.0,48,0.00,,,0.01,Wunderground v.1.15,2013-10-01 19:55:00,
2013-10-01 15:56:00,75.0,52.8,29.89,NW,311,6.0,12.0,46,0.00,,,0.01,Wunderground v.1.15,2013-10-01 19:56:00,
2013-10-01 15:58:00,75.0,53.4,29.90,West,265,4.0,6.0,47,0.00,,,0.01,Wunderground v.1.15,2013-10-01 19:58:00,
2013-10-01 16:00:00,75.2,54.2,29.89,West,270,4.0,-999.0,48,0.00,,,0.01,Wunderground v.1.15,2013-10-01 20:00:00,
2013-10-01 16:01:00,75.1,54.1,29.89,WSW,255,0.0,8.0,48,0.00,,,0.01,Wunderground v.1.15,2013-10-01 20:01:00,
2013-10-01 16:03:00,75.2,53.6,29.89,NW,320,3.0,10.0,47,0.00,,,0.01,Wunderground v.1.15,2013-10-01 20:03:00,
2013-10-01 16:05:00,75.1,53.5,29.90,NW,315,5.0,-999.0,47,0.00,,,0.01,Wunderground v.1.15,2013-10-01 20:05:00,
2013-10-01 16:06:00,75.2,53.6,29.89,NW,316,5.0,12.0,47,0.00,,,0.01,Wunderground v.1.15,2013-10-01 20:06:00,
2013-10-01 16:08:00,75.1,53.5,29.89,West,275,2.0,5.0,47,0.00,,,0.01,Wunderground v.1.15,2013-10-01 20:08:00,
2013-10-01 16:09:00,75.1,53.5,29.89,WSW,242,3.0,5.0,47,0.00,,,0.01,Wunderground v.1.15,2013-10-01 20:09:00,
2013-10-01 16:10:00,75.2,53.6,29.89,WNW,293,3.0,-999.0,47,0.00,,,0.01,Wunderground v.1.15,2013-10-01 20:10:00,
2013-10-01 16:11:00,75.2,53.6,29.89,WNW,299,4.0,7.0,47,0.00,,,0.01,Wunderground v.1.15,2013-10-01 20:11:00,
2013-10-01 16:14:00,75.2,53.6,29.89,West,273,4.0,7.0,47,0.00,,,0.01,Wunderground v.1.15,2013-10-01 20:14:00,
2013-10-01 16:15:00,75.4,54.9,29.89,NW,315,3.0,-999.0,49,0.00,,,0.01,Wunderground v.1.15,2013-10-01 20:15:00,
2013-10-01 16:17:00,75.3,54.3,29.89,WSW,258,3.0,7.0,48,0.00,,,0.01,Wunderground v.1.15,2013-10-01 20:17:00,
2013-10-01 16:19:00,75.4,54.3,29.89,NNW,341,2.0,7.0,48,0.00,,,0.01,Wunderground v.1.15,2013-10-01 20:19:00,
2013-10-01 16:20:00,75.3,54.8,29.89,West,270,4.0,-999.0,49,0.00,,,0.01,Wunderground v.1.15,2013-10-01 20:20:00,
2013-10-01 16:22:00,75.4,54.3,29.89,West,271,6.0,9.0,48,0.00,,,0.01,Wunderground v.1.15,2013-10-01 20:22:00,
2013-10-01 16:24:00,75.2,54.7,29.89,NW,311,4.0,9.0,49,0.00,,,0.01,Wunderground v.1.15,2013-10-01 20:24:00,
2013-10-01 16:25:00,75.2,55.3,29.90,NW,315,4.0,-999.0,50,0.00,,,0.01,Wunderground v.1.15,2013-10-01 20:25:00,
2013-10-01 16:27:00,75.2,54.7,29.90,West,275,6.0,9.0,49,0.00,,,0.01,Wunderground v.1.15,2013-10-01 20:27:00,
2013-10-01 16:29:00,75.2,54.7,29.90,WNW,284,4.0,8.0,49,0.00,,,0.01,Wunderground v.1.15,2013-10-01 20:29:00,
2013-10-01 16:30:00,75.3,54.8,29.90,West,270,2.0,-999.0,49,0.00,,,0.01,Wunderground v.1.15,2013-10-01 20:30:00,
2013-10-01 16:32:00,75.3,54.8,29.90,West,273,2.0,8.0,49,0.00,,,0.01,Wunderground v.1.15,2013-10-01 20:32:00,
2013-10-01 16:34:00,75.5,55.0,29.90,West,269,2.0,8.0,49,0.00,,,0.01,Wunderground v.1.15,2013-10-01 20:34:00,
2013-10-01 16:35:00,75.6,55.6,29.90,WNW,293,2.0,-999.0,50,0.00,,,0.01,Wunderground v.1.15,2013-10-01 20:35:00,
2013-10-01 16:37:00,75.6,55.1,29.89,NW,322,1.0,8.0,49,0.00,,,0.01,Wunderground v.1.15,2013-10-01 20:37:00,
2013-10-01 16:39:00,75.7,55.7,29.90,NW,324,1.0,9.0,50,0.00,,,0.01,Wunderground v.1.15,2013-10-01 20:39:00,
2013-10-01 16:40:00,75.7,55.2,29.90,West,270,3.0,-999.0,49,0.00,,,0.01,Wunderground v.1.15,2013-10-01 20:40:00,
2013-10-01 16:43:00,75.7,55.2,29.90,NW,307,5.0,9.0,49,0.00,,,0.01,Wunderground v.1.15,2013-10-01 20:43:00,
2013-10-01 16:44:00,75.7,55.2,29.90,WNW,295,3.0,9.0,49,0.00,,,0.01,Wunderground v.1.15,2013-10-01 20:44:00,
2013-10-01 16:45:00,75.7,55.2,29.90,WNW,293,3.0,-999.0,49,0.00,,,0.01,Wunderground v.1.15,2013-10-01 20:45:00,
2013-10-01 16:48:00,75.7,55.2,29.90,West,273,2.0,3.0,49,0.00,,,0.01,Wunderground v.1.15,2013-10-01 20:48:00,
2013-10-01 16:49:00,75.6,55.1,29.90,NW,317,5.0,7.0,49,0.00,,,0.01,Wunderground v.1.15,2013-10-01 20:49:00,
2013-10-01 16:50:00,75.5,55.6,29.90,WNW,293,3.0,-999.0,50,0.00,,,0.01,Wunderground v.1.15,2013-10-01 20:50:00,
2013-10-01 16:53:00,75.4,55.5,29.90,WNW,284,2.0,7.0,50,0.00,,,0.01,Wunderground v.1.15,2013-10-01 20:53:00,
2013-10-01 16:55:00,75.4,55.5,29.90,WNW,289,4.0,7.0,50,0.00,,,0.01,Wunderground v.1.15,2013-10-01 20:55:00,
2013-10-01 16:58:00,75.1,55.2,29.90,NW,316,10.0,10.0,50,0.00,,,0.01,Wunderground v.1.15,2013-10-01 20:58:00,
2013-10-01 17:00:00,75.0,54.5,29.90,West,273,3.0,10.0,49,0.00,,,0.01,Wunderground v.1.15,2013-10-01 21:00:00,
2013-10-01 17:03:00,75.1,55.2,29.90,WNW,295,4.0,10.0,50,0.00,,,0.01,Wunderground v.1.15,2013-10-01 21:03:00,
2013-10-01 17:05:00,75.1,55.2,29.90,WNW,295,2.0,10.0,50,0.00,,,0.01,Wunderground v.1.15,2013-10-01 21:05:00,
2013-10-01 17:08:00,74.9,55.0,29.90,West,277,3.0,6.0,50,0.00,,,0.01,Wunderground v.1.15,2013-10-01 21:08:00,
2013-10-01 17:10:00,74.9,55.6,29.90,WNW,284,6.0,7.0,51,0.00,,,0.01,Wunderground v.1.15,2013-10-01 21:10:00,
2013-10-01 17:13:00,74.9,55.6,29.90,NW,317,3.0,8.0,51,0.00,,,0.01,Wunderground v.1.15,2013-10-01 21:13:00,
2013-10-01 17:15:00,74.9,55.0,29.90,WNW,294,4.0,8.0,50,0.00,,,0.01,Wunderground v.1.15,2013-10-01 21:15:00,
2013-10-01 17:16:00,74.9,55.6,29.90,WNW,292,2.0,8.0,51,0.00,,,0.01,Wunderground v.1.15,2013-10-01 21:16:00,
2013-10-01 17:18:00,74.9,55.6,29.90,WNW,288,3.0,4.0,51,0.00,,,0.01,Wunderground v.1.15,2013-10-01 21:18:00,
2013-10-01 17:20:00,74.8,55.5,29.90,West,277,1.0,7.0,51,0.00,,,0.01,Wunderground v.1.15,2013-10-01 21:20:00,
2013-10-01 17:21:00,74.8,55.5,29.90,West,277,0.0,7.0,51,0.00,,,0.01,Wunderground v.1.15,2013-10-01 21:21:00,
2013-10-01 17:23:00,74.7,55.9,29.90,West,265,2.0,7.0,52,0.00,,,0.01,Wunderground v.1.15,2013-10-01 21:23:00,
2013-10-01 17:25:00,74.5,55.7,29.90,WNW,293,3.0,-999.0,52,0.00,,,0.01,Wunderground v.1.15,2013-10-01 21:25:00,
2013-10-01 17:26:00,74.7,55.9,29.90,WNW,292,4.0,7.0,52,0.00,,,0.01,Wunderground v.1.15,2013-10-01 21:26:00,
2013-10-01 17:28:00,74.4,55.6,29.90,WNW,302,1.0,3.0,52,0.00,,,0.01,Wunderground v.1.15,2013-10-01 21:28:00,
2013-10-01 17:30:00,74.1,56.4,29.90,West,270,2.0,-999.0,54,0.00,,,0.01,Wunderground v.1.15,2013-10-01 21:30:00,
2013-10-01 17:31:00,74.3,56.1,29.90,West,274,1.0,5.0,53,0.00,,,0.01,Wunderground v.1.15,2013-10-01 21:31:00,
2013-10-01 17:34:00,74.0,56.3,29.90,WNW,288,2.0,5.0,54,0.00,,,0.01,Wunderground v.1.15,2013-10-01 21:34:00,
2013-10-01 17:35:00,73.8,57.1,29.90,NW,315,1.0,-999.0,56,0.00,,,0.01,Wunderground v.1.15,2013-10-01 21:35:00,
2013-10-01 17:36:00,73.9,56.2,29.90,NW,316,1.0,5.0,54,0.00,,,0.01,Wunderground v.1.15,2013-10-01 21:36:00,
2013-10-01 17:39:00,73.8,57.1,29.90,NW,316,0.0,2.0,56,0.00,,,0.01,Wunderground v.1.15,2013-10-01 21:39:00,
2013-10-01 17:40:00,73.8,57.6,29.90,NW,315,0.0,-999.0,57,0.00,,,0.01,Wunderground v.1.15,2013-10-01 21:40:00,
2013-10-01 17:41:00,73.8,56.6,29.90,NW,316,0.0,2.0,55,0.00,,,0.01,Wunderground v.1.15,2013-10-01 21:41:00,
2013-10-01 17:44:00,73.7,57.0,29.90,NW,316,0.0,2.0,56,0.00,,,0.01,Wunderground v.1.15,2013-10-01 21:44:00,
2013-10-01 17:45:00,73.5,58.3,29.90,N/A,-737280,0.0,-999.0,59,0.00,,,0.01,Wunderground v.1.15,2013-10-01 21:45:00,
2013-10-01 17:46:00,73.7,58.0,29.90,NW,316,0.0,2.0,58,0.00,,,0.01,Wunderground v.1.15,2013-10-01 21:46:00,
2013-10-01 17:50:00,73.4,58.2,29.90,NW,316,0.0,0.0,59,0.00,,,0.01,Wunderground v.1.15,2013-10-01 21:50:00,
2013-10-01 17:51:00,73.3,57.6,29.90,NW,316,0.0,0.0,58,0.00,,,0.01,Wunderground v.1.15,2013-10-01 21:51:00,
2013-10-01 17:55:00,73.1,58.4,29.90,NW,316,0.0,1.0,60,0.00,,,0.01,Wunderground v.1.15,2013-10-01 21:55:00,
2013-10-01 17:56:00,73.0,58.8,29.90,NW,316,1.0,1.0,61,0.00,,,0.01,Wunderground v.1.15,2013-10-01 21:56:00,
2013-10-01 17:57:00,73.0,58.8,29.90,NW,316,0.0,1.0,61,0.00,,,0.01,Wunderground v.1.15,2013-10-01 21:57:00,
2013-10-01 18:00:00,72.8,58.6,29.90,NW,316,0.0,1.0,61,0.00,,,0.01,Wunderground v.1.15,2013-10-01 22:00:00,
2013-10-01 18:02:00,72.7,58.5,29.90,NW,316,0.0,1.0,61,0.00,,,0.01,Wunderground v.1.15,2013-10-01 22:02:00,
2013-10-01 18:05:00,72.5,58.3,29.90,NW,316,0.0,1.0,61,0.00,,,0.01,Wunderground v.1.15,2013-10-01 22:05:00,
2013-10-01 18:07:00,72.4,59.1,29.90,NW,316,0.0,1.0,63,0.00,,,0.01,Wunderground v.1.15,2013-10-01 22:07:00,
2013-10-01 18:10:00,72.0,59.2,29.91,NW,316,0.0,0.0,64,0.00,,,0.01,Wunderground v.1.15,2013-10-01 22:10:00,
2013-10-01 18:12:00,71.7,58.9,29.91,NW,316,0.0,0.0,64,0.00,,,0.01,Wunderground v.1.15,2013-10-01 22:12:00,
2013-10-01 18:15:00,71.1,58.7,29.91,NW,316,0.0,0.0,65,0.00,,,0.01,Wunderground v.1.15,2013-10-01 22:15:00,
2013-10-01 18:17:00,70.9,58.5,29.91,NW,316,0.0,0.0,65,0.00,,,0.01,Wunderground v.1.15,2013-10-01 22:17:00,
2013-10-01 18:18:00,70.8,58.9,29.91,NW,316,0.0,0.0,66,0.00,,,0.01,Wunderground v.1.15,2013-10-01 22:18:00,
2013-10-01 18:20:00,70.4,58.9,29.91,N/A,-737280,0.0,-999.0,67,0.00,,,0.01,Wunderground v.1.15,2013-10-01 22:20:00,
2013-10-01 18:21:00,70.5,58.6,29.91,NW,316,0.0,0.0,66,0.00,,,0.01,Wunderground v.1.15,2013-10-01 22:21:00,
2013-10-01 18:22:00,70.4,58.5,29.91,NW,316,0.0,0.0,66,0.00,,,0.01,Wunderground v.1.15,2013-10-01 22:22:00,
2013-10-01 18:23:00,70.4,58.5,29.91,NW,316,0.0,0.0,66,0.00,,,0.01,Wunderground v.1.15,2013-10-01 22:23:00,
2013-10-01 18:25:00,70.0,58.5,29.91,N/A,-737280,0.0,-999.0,67,0.00,,,0.01,Wunderground v.1.15,2013-10-01 22:25:00,
2013-10-01 18:26:00,70.1,58.6,29.91,NW,316,0.0,0.0,67,0.00,,,0.01,Wunderground v.1.15,2013-10-01 22:26:00,
2013-10-01 18:27:00,70.0,58.5,29.91,NW,316,0.0,0.0,67,0.00,,,0.01,Wunderground v.1.15,2013-10-01 22:27:00,
2013-10-01 18:28:00,69.9,58.4,29.91,NW,316,0.0,0.0,67,0.00,,,0.01,Wunderground v.1.15,2013-10-01 22:28:00,
2013-10-01 18:30:00,69.4,58.4,29.91,N/A,-737280,0.0,-999.0,68,0.00,,,0.01,Wunderground v.1.15,2013-10-01 22:30:00,
2013-10-01 18:31:00,69.5,58.1,29.91,NW,316,0.0,0.0,67,0.00,,,0.01,Wunderground v.1.15,2013-10-01 22:31:00,
2013-10-01 18:32:00,69.4,58.0,29.91,NW,316,0.0,0.0,67,0.00,,,0.01,Wunderground v.1.15,2013-10-01 22:32:00,
2013-10-01 18:34:00,69.2,58.2,29.91,NW,316,0.0,0.0,68,0.00,,,0.01,Wunderground v.1.15,2013-10-01 22:34:00,
2013-10-01 18:35:00,68.8,58.2,29.91,N/A,-737280,0.0,-999.0,69,0.00,,,0.01,Wunderground v.1.15,2013-10-01 22:35:00,
2013-10-01 18:36:00,69.0,58.0,29.91,NW,316,0.0,0.0,68,0.00,,,0.01,Wunderground v.1.15,2013-10-01 22:36:00,
2013-10-01 18:37:00,68.9,57.9,29.91,NW,316,0.0,0.0,68,0.00,,,0.01,Wunderground v.1.15,2013-10-01 22:37:00,
2013-10-01 18:39:00,68.7,58.1,29.91,NW,316,0.0,0.0,69,0.00,,,0.01,Wunderground v.1.15,2013-10-01 22:39:00,
2013-10-01 18:40:00,68.3,58.1,29.91,N/A,-737280,0.0,-999.0,70,0.00,,,0.01,Wunderground v.1.15,2013-10-01 22:40:00,
2013-10-01 18:41:00,68.4,58.2,29.91,NW,316,0.0,0.0,70,0.00,,,0.01,Wunderground v.1.15,2013-10-01 22:41:00,
2013-10-01 18:42:00,68.3,58.1,29.91,NW,316,0.0,0.0,70,0.00,,,0.01,Wunderground v.1.15,2013-10-01 22:42:00,
2013-10-01 18:44:00,68.0,57.8,29.91,NW,316,0.0,0.0,70,0.00,,,0.01,Wunderground v.1.15,2013-10-01 22:44:00,
2013-10-01 18:45:00,67.1,58.2,29.92,NW,315,0.0,-999.0,73,0.00,,,0.01,Wunderground v.1.15,2013-10-01 22:45:00,
2013-10-01 18:46:00,67.4,57.7,29.91,NW,316,0.0,1.0,71,0.00,,,0.01,Wunderground v.1.15,2013-10-01 22:46:00,
2013-10-01 18:47:00,67.1,57.4,29.91,NW,316,0.0,1.0,71,0.00,,,0.01,Wunderground v.1.15,2013-10-01 22:47:00,
2013-10-01 18:49:00,66.6,57.3,29.92,NW,316,0.0,1.0,72,0.00,,,0.01,Wunderground v.1.15,2013-10-01 22:49:00,
2013-10-01 18:50:00,66.1,57.6,29.92,NW,315,0.0,-999.0,74,0.00,,,0.01,Wunderground v.1.15,2013-10-01 22:50:00,
2013-10-01 18:51:00,63.5,57.2,29.92,NW,316,0.0,1.0,80,0.00,,,0.01,Wunderground v.1.15,2013-10-01 22:51:00,
2013-10-01 18:52:00,66.2,57.7,29.91,NW,316,0.0,1.0,74,0.00,,,0.01,Wunderground v.1.15,2013-10-01 22:52:00,
2013-10-01 18:53:00,66.1,57.6,29.91,NW,316,0.0,1.0,74,0.00,,,0.01,Wunderground v.1.15,2013-10-01 22:53:00,
2013-10-01 18:54:00,65.9,57.4,29.92,NW,316,0.0,1.0,74,0.00,,,0.01,Wunderground v.1.15,2013-10-01 22:54:00,
2013-10-01 18:55:00,63.2,57.3,29.92,NW,316,0.0,1.0,81,0.00,,,0.01,Wunderground v.1.15,2013-10-01 22:55:00,
2013-10-01 18:57:00,65.6,57.5,29.92,NW,316,0.0,1.0,75,0.00,,,0.01,Wunderground v.1.15,2013-10-01 22:57:00,
2013-10-01 18:58:00,65.4,57.3,29.92,NW,316,0.0,1.0,75,0.00,,,0.01,Wunderground v.1.15,2013-10-01 22:58:00,
2013-10-01 19:00:00,65.0,57.2,29.92,NW,316,0.0,0.0,76,0.00,,,0.01,Wunderground v.1.15,2013-10-01 23:00:00,
2013-10-01 19:02:00,64.7,57.3,29.92,NW,316,0.0,1.0,77,0.00,,,0.01,Wunderground v.1.15,2013-10-01 23:02:00,
2013-10-01 19:03:00,64.5,57.1,29.92,NW,316,0.0,1.0,77,0.00,,,0.01,Wunderground v.1.15,2013-10-01 23:03:00,
2013-10-01 19:04:00,62.3,57.1,29.93,NW,316,0.0,1.0,83,0.00,,,0.01,Wunderground v.1.15,2013-10-01 23:04:00,
2013-10-01 19:05:00,64.3,57.3,29.92,NW,316,0.0,1.0,78,0.00,,,0.01,Wunderground v.1.15,2013-10-01 23:05:00,
2013-10-01 19:07:00,64.1,57.1,29.92,NW,316,0.0,1.0,78,0.00,,,0.01,Wunderground v.1.15,2013-10-01 23:07:00,
2013-10-01 19:08:00,64.0,57.4,29.92,NW,316,0.0,0.0,79,0.00,,,0.01,Wunderground v.1.15,2013-10-01 23:08:00,
2013-10-01 19:10:00,63.8,57.2,29.92,NW,316,0.0,0.0,79,0.00,,,0.01,Wunderground v.1.15,2013-10-01 23:10:00,
2013-10-01 19:12:00,63.8,57.2,29.92,NW,316,0.0,0.0,79,0.00,,,0.01,Wunderground v.1.15,2013-10-01 23:12:00,
2013-10-01 19:13:00,63.8,57.5,29.92,NW,316,0.0,0.0,80,0.00,,,0.01,Wunderground v.1.15,2013-10-01 23:13:00,
2013-10-01 19:15:00,63.7,57.4,29.92,NW,316,0.0,0.0,80,0.00,,,0.01,Wunderground v.1.15,2013-10-01 23:15:00,
2013-10-01 19:17:00,63.6,57.3,29.92,NW,316,0.0,0.0,80,0.00,,,0.01,Wunderground v.1.15,2013-10-01 23:17:00,
2013-10-01 19:18:00,63.5,57.2,29.92,NW,316,0.0,0.0,80,0.00,,,0.01,Wunderground v.1.15,2013-10-01 23:18:00,
2013-10-01 19:20:00,63.4,57.5,29.92,NW,316,0.0,1.0,81,0.00,,,0.01,Wunderground v.1.15,2013-10-01 23:20:00,
2013-10-01 19:22:00,63.2,57.3,29.92,NW,316,0.0,1.0,81,0.00,,,0.01,Wunderground v.1.15,2013-10-01 23:22:00,
2013-10-01 19:23:00,63.2,57.3,29.92,NW,316,0.0,1.0,81,0.00,,,0.01,Wunderground v.1.15,2013-10-01 23:23:00,
2013-10-01 19:24:00,63.2,57.3,29.92,NW,316,0.0,1.0,81,0.00,,,0.01,Wunderground v.1.15,2013-10-01 23:24:00,
2013-10-01 19:25:00,62.8,57.2,29.92,NW,315,0.0,-999.0,82,0.00,,,0.01,Wunderground v.1.15,2013-10-01 23:25:00,
2013-10-01 19:26:00,62.9,57.3,29.92,NW,316,0.0,1.0,82,0.00,,,0.01,Wunderground v.1.15,2013-10-01 23:26:00,
2013-10-01 19:27:00,62.8,57.2,29.92,NW,316,0.0,1.0,82,0.00,,,0.01,Wunderground v.1.15,2013-10-01 23:27:00,
2013-10-01 19:28:00,62.7,57.1,29.92,NW,316,0.0,1.0,82,0.00,,,0.01,Wunderground v.1.15,2013-10-01 23:28:00,
2013-10-01 19:29:00,62.6,57.0,29.92,NW,316,0.0,1.0,82,0.00,,,0.01,Wunderground v.1.15,2013-10-01 23:29:00,
2013-10-01 19:30:00,62.3,57.1,29.93,NW,315,0.0,-999.0,83,0.00,,,0.01,Wunderground v.1.15,2013-10-01 23:30:00,
2013-10-01 19:31:00,62.4,57.2,29.93,NW,316,0.0,1.0,83,0.00,,,0.01,Wunderground v.1.15,2013-10-01 23:31:00,
2013-10-01 19:33:00,62.3,57.1,29.92,NW,316,0.0,1.0,83,0.00,,,0.01,Wunderground v.1.15,2013-10-01 23:33:00,
2013-10-01 19:34:00,62.2,57.0,29.92,NW,316,0.0,1.0,83,0.00,,,0.01,Wunderground v.1.15,2013-10-01 23:34:00,
2013-10-01 19:35:00,62.0,57.4,29.93,NW,315,0.0,-999.0,85,0.00,,,0.01,Wunderground v.1.15,2013-10-01 23:35:00,
2013-10-01 19:37:00,62.0,56.8,29.92,NW,316,0.0,1.0,83,0.00,,,0.01,Wunderground v.1.15,2013-10-01 23:37:00,
2013-10-01 19:38:00,61.9,57.0,29.93,NW,316,0.0,0.0,84,0.00,,,0.01,Wunderground v.1.15,2013-10-01 23:38:00,
2013-10-01 19:39:00,61.9,57.0,29.93,NW,316,0.0,1.0,84,0.00,,,0.01,Wunderground v.1.15,2013-10-01 23:39:00,
2013-10-01 19:40:00,63.1,59.5,29.93,NW,315,0.0,-999.0,88,0.00,,,0.01,Wunderground v.1.15,2013-10-01 23:40:00,
2013-10-01 19:42:00,63.1,59.2,29.93,NW,316,0.0,1.0,87,0.00,,,0.01,Wunderground v.1.15,2013-10-01 23:42:00,
2013-10-01 19:43:00,63.5,59.6,29.93,NW,316,0.0,1.0,87,0.00,,,0.01,Wunderground v.1.15,2013-10-01 23:43:00,
2013-10-01 19:44:00,63.7,59.8,29.93,NW,316,0.0,1.0,87,0.00,,,0.01,Wunderground v.1.15,2013-10-01 23:44:00,
2013-10-01 19:45:00,64.6,60.0,29.93,NW,315,0.0,-999.0,85,0.00,,,0.01,Wunderground v.1.15,2013-10-01 23:45:00,
2013-10-01 19:47:00,64.2,60.6,29.93,NW,316,0.0,1.0,88,0.00,,,0.01,Wunderground v.1.15,2013-10-01 23:47:00,
2013-10-01 19:48:00,64.5,60.5,29.93,NW,316,0.0,0.0,87,0.00,,,0.01,Wunderground v.1.15,2013-10-01 23:48:00,
2013-10-01 19:49:00,65.4,60.8,29.93,NW,316,0.0,0.0,85,0.00,,,0.01,Wunderground v.1.15,2013-10-01 23:49:00,
2013-10-01 19:50:00,65.6,61.0,29.93,NW,316,0.0,0.0,85,0.00,,,0.01,Wunderground v.1.15,2013-10-01 23:50:00,
2013-10-01 19:51:00,60.6,55.7,29.93,NW,316,0.0,0.0,84,0.00,,,0.01,Wunderground v.1.15,2013-10-01 23:51:00,
2013-10-01 19:52:00,66.1,61.5,29.93,NW,316,0.0,1.0,85,0.00,,,0.01,Wunderground v.1.15,2013-10-01 23:52:00,
2013-10-01 19:53:00,66.1,61.8,29.93,NW,316,0.0,1.0,86,0.00,,,0.01,Wunderground v.1.15,2013-10-01 23:53:00,
2013-10-01 19:54:00,66.2,61.9,29.93,NW,316,0.0,1.0,86,0.00,,,0.01,Wunderground v.1.15,2013-10-01 23:54:00,
2013-10-01 19:55:00,60.2,55.7,29.93,NW,316,0.0,1.0,85,0.00,,,0.01,Wunderground v.1.15,2013-10-01 23:55:00,
2013-10-01 19:56:00,66.3,62.6,29.93,NW,316,0.0,1.0,88,0.00,,,0.01,Wunderground v.1.15,2013-10-01 23:56:00,
2013-10-01 19:57:00,65.8,62.1,29.93,NW,316,0.0,1.0,88,0.00,,,0.01,Wunderground v.1.15,2013-10-01 23:57:00,
2013-10-01 19:58:00,65.7,62.0,29.93,NW,316,0.0,0.0,88,0.00,,,0.01,Wunderground v.1.15,2013-10-01 23:58:00,
2013-10-01 19:59:00,66.1,62.4,29.93,NW,316,0.0,0.0,88,0.00,,,0.01,Wunderground v.1.15,2013-10-01 23:59:00,
2013-10-01 20:00:00,65.2,59.2,29.93,NW,315,0.0,-999.0,81,0.00,,,0.01,Wunderground v.1.15,2013-10-02 00:00:00,
2013-10-01 20:01:00,65.8,61.5,29.93,NW,316,0.0,0.0,86,0.00,,,0.01,Wunderground v.1.15,2013-10-02 00:01:00,
2013-10-01 20:03:00,65.0,59.4,29.93,NW,316,0.0,1.0,82,0.00,,,0.01,Wunderground v.1.15,2013-10-02 00:03:00,
2013-10-01 20:04:00,64.4,58.4,29.93,NW,316,0.0,1.0,81,0.00,,,0.01,Wunderground v.1.15,2013-10-02 00:04:00,
2013-10-01 20:05:00,63.5,57.6,29.93,NW,315,0.0,-999.0,81,0.00,,,0.01,Wunderground v.1.15,2013-10-02 00:05:00,
2013-10-01 20:06:00,64.0,58.1,29.93,NW,316,0.0,1.0,81,0.00,,,0.01,Wunderground v.1.15,2013-10-02 00:06:00,
2013-10-01 20:08:00,63.4,57.5,29.93,NW,316,0.0,1.0,81,0.00,,,0.01,Wunderground v.1.15,2013-10-02 00:08:00,
2013-10-01 20:10:00,62.9,57.0,29.93,NW,316,0.0,1.0,81,0.00,,,0.01,Wunderground v.1.15,2013-10-02 00:10:00,
2013-10-01 20:11:00,62.5,56.9,29.93,NW,316,0.0,1.0,82,0.00,,,0.01,Wunderground v.1.15,2013-10-02 00:11:00,
2013-10-01 20:13:00,61.9,56.3,29.93,NW,316,0.0,1.0,82,0.00,,,0.01,Wunderground v.1.15,2013-10-02 00:13:00,
2013-10-01 20:15:00,61.6,56.4,29.93,NW,316,0.0,1.0,83,0.00,,,0.01,Wunderground v.1.15,2013-10-02 00:15:00,
2013-10-01 20:16:00,61.2,56.3,29.93,NW,316,0.0,1.0,84,0.00,,,0.01,Wunderground v.1.15,2013-10-02 00:16:00,
2013-10-01 20:18:00,60.8,55.9,29.93,NW,316,0.0,0.0,84,0.00,,,0.01,Wunderground v.1.15,2013-10-02 00:18:00,
2013-10-01 20:20:00,60.5,56.0,29.93,NW,316,1.0,1.0,85,0.00,,,0.01,Wunderground v.1.15,2013-10-02 00:20:00,
2013-10-01 20:22:00,60.3,55.8,29.93,NW,316,0.0,1.0,85,0.00,,,0.01,Wunderground v.1.15,2013-10-02 00:22:00,
2013-10-01 20:23:00,60.1,55.6,29.93,NW,316,0.0,1.0,85,0.00,,,0.01,Wunderground v.1.15,2013-10-02 00:23:00,
2013-10-01 20:24:00,60.1,55.6,29.93,NW,316,0.0,1.0,85,0.00,,,0.01,Wunderground v.1.15,2013-10-02 00:24:00,
2013-10-01 20:25:00,59.9,55.4,29.93,NW,316,0.0,1.0,85,0.00,,,0.01,Wunderground v.1.15,2013-10-02 00:25:00,
2013-10-01 20:26:00,59.9,55.4,29.93,NW,316,0.0,1.0,85,0.00,,,0.01,Wunderground v.1.15,2013-10-02 00:26:00,
2013-10-01 20:28:00,59.8,55.6,29.93,NW,316,0.0,1.0,86,0.00,,,0.01,Wunderground v.1.15,2013-10-02 00:28:00,
2013-10-01 20:29:00,59.6,55.4,29.93,NW,316,0.0,1.0,86,0.00,,,0.01,Wunderground v.1.15,2013-10-02 00:29:00,
2013-10-01 20:30:00,59.4,55.2,29.93,NW,315,0.0,-999.0,86,0.00,,,0.01,Wunderground v.1.15,2013-10-02 00:30:00,
2013-10-01 20:31:00,59.5,55.3,29.93,NW,316,0.0,1.0,86,0.00,,,0.01,Wunderground v.1.15,2013-10-02 00:31:00,
2013-10-01 20:32:00,59.5,55.3,29.93,NW,316,0.0,1.0,86,0.00,,,0.01,Wunderground v.1.15,2013-10-02 00:32:00,
2013-10-01 20:33:00,59.3,55.1,29.93,NW,316,0.0,1.0,86,0.00,,,0.01,Wunderground v.1.15,2013-10-02 00:33:00,
2013-10-01 20:35:00,59.3,55.1,29.93,NW,316,0.0,1.0,86,0.00,,,0.01,Wunderground v.1.15,2013-10-02 00:35:00,
2013-10-01 20:36:00,59.2,55.0,29.93,NW,316,0.0,1.0,86,0.00,,,0.01,Wunderground v.1.15,2013-10-02 00:36:00,
2013-10-01 20:37:00,59.1,55.2,29.93,NW,316,0.0,1.0,87,0.00,,,0.01,Wunderground v.1.15,2013-10-02 00:37:00,
2013-10-01 20:38:00,59.1,55.2,29.93,NW,316,0.0,0.0,87,0.00,,,0.01,Wunderground v.1.15,2013-10-02 00:38:00,
2013-10-01 20:39:00,59.1,55.2,29.93,NW,316,0.0,0.0,87,0.00,,,0.01,Wunderground v.1.15,2013-10-02 00:39:00,
2013-10-01 20:40:00,59.0,55.1,29.94,NW,316,0.0,0.0,87,0.00,,,0.01,Wunderground v.1.15,2013-10-02 00:40:00,
2013-10-01 20:41:00,59.0,55.1,29.93,NW,316,0.0,0.0,87,0.00,,,0.01,Wunderground v.1.15,2013-10-02 00:41:00,
2013-10-01 20:42:00,59.0,55.1,29.93,NW,316,0.0,1.0,87,0.00,,,0.01,Wunderground v.1.15,2013-10-02 00:42:00,
2013-10-01 20:43:00,58.9,55.0,29.94,NW,316,0.0,1.0,87,0.00,,,0.01,Wunderground v.1.15,2013-10-02 00:43:00,
2013-10-01 20:44:00,58.9,55.0,29.94,NW,316,0.0,1.0,87,0.00,,,0.01,Wunderground v.1.15,2013-10-02 00:44:00,
2013-10-01 20:45:00,58.8,54.9,29.93,N/A,-737280,0.0,-999.0,87,0.00,,,0.01,Wunderground v.1.15,2013-10-02 00:45:00,
2013-10-01 20:46:00,58.8,54.9,29.93,NW,316,0.0,1.0,87,0.00,,,0.01,Wunderground v.1.15,2013-10-02 00:46:00,
2013-10-01 20:47:00,58.8,54.9,29.93,NW,316,0.0,1.0,87,0.00,,,0.01,Wunderground v.1.15,2013-10-02 00:47:00,
2013-10-01 20:49:00,58.7,54.8,29.93,NW,316,0.0,0.0,87,0.00,,,0.01,Wunderground v.1.15,2013-10-02 00:49:00,
2013-10-01 20:50:00,58.6,54.7,29.93,NW,315,0.0,-999.0,87,0.00,,,0.01,Wunderground v.1.15,2013-10-02 00:50:00,
2013-10-01 20:51:00,58.7,54.8,29.93,NW,316,0.0,1.0,87,0.00,,,0.01,Wunderground v.1.15,2013-10-02 00:51:00,
2013-10-01 20:52:00,58.7,54.8,29.93,NW,316,0.0,1.0,87,0.00,,,0.01,Wunderground v.1.15,2013-10-02 00:52:00,
2013-10-01 20:53:00,58.6,54.7,29.93,NW,316,0.0,1.0,87,0.00,,,0.01,Wunderground v.1.15,2013-10-02 00:53:00,
2013-10-01 20:54:00,58.6,54.7,29.93,NW,316,0.0,1.0,87,0.00,,,0.01,Wunderground v.1.15,2013-10-02 00:54:00,
2013-10-01 20:55:00,58.6,54.7,29.93,NW,315,0.0,-999.0,87,0.00,,,0.01,Wunderground v.1.15,2013-10-02 00:55:00,
2013-10-01 20:57:00,58.6,54.7,29.93,NW,316,0.0,1.0,87,0.00,,,0.01,Wunderground v.1.15,2013-10-02 00:57:00,
2013-10-01 20:58:00,58.6,54.7,29.93,NW,316,0.0,0.0,87,0.00,,,0.01,Wunderground v.1.15,2013-10-02 00:58:00,
2013-10-01 20:59:00,58.6,54.7,29.93,NW,316,0.0,1.0,87,0.00,,,0.01,Wunderground v.1.15,2013-10-02 00:59:00,
2013-10-01 21:00:00,58.8,54.9,29.94,NW,315,0.0,-999.0,87,0.00,,,0.01,Wunderground v.1.15,2013-10-02 01:00:00,
2013-10-01 21:02:00,58.7,54.8,29.93,NW,316,0.0,1.0,87,0.00,,,0.01,Wunderground v.1.15,2013-10-02 01:02:00,
2013-10-01 21:03:00,58.8,54.9,29.93,NW,316,0.0,1.0,87,0.00,,,0.01,Wunderground v.1.15,2013-10-02 01:03:00,
2013-10-01 21:04:00,58.9,55.0,29.94,NW,316,1.0,1.0,87,0.00,,,0.01,Wunderground v.1.15,2013-10-02 01:04:00,
2013-10-01 21:05:00,59.2,55.3,29.94,NW,315,0.0,-999.0,87,0.00,,,0.01,Wunderground v.1.15,2013-10-02 01:05:00,
2013-10-01 21:07:00,59.2,55.3,29.93,NW,316,0.0,2.0,87,0.00,,,0.01,Wunderground v.1.15,2013-10-02 01:07:00,
2013-10-01 21:08:00,59.3,55.4,29.94,NW,316,1.0,1.0,87,0.00,,,0.01,Wunderground v.1.15,2013-10-02 01:08:00,
2013-10-01 21:09:00,59.4,55.5,29.94,NW,316,0.0,1.0,87,0.00,,,0.01,Wunderground v.1.15,2013-10-02 01:09:00,
2013-10-01 21:10:00,59.5,55.6,29.94,NW,316,0.0,1.0,87,0.00,,,0.01,Wunderground v.1.15,2013-10-02 01:10:00,
2013-10-01 21:12:00,59.7,55.8,29.94,NW,316,0.0,1.0,87,0.00,,,0.01,Wunderground v.1.15,2013-10-02 01:12:00,
2013-10-01 21:13:00,59.8,55.6,29.94,NW,316,0.0,1.0,86,0.00,,,0.01,Wunderground v.1.15,2013-10-02 01:13:00,
2013-10-01 21:14:00,59.8,55.6,29.94,NW,316,1.0,2.0,86,0.00,,,0.01,Wunderground v.1.15,2013-10-02 01:14:00,
2013-10-01 21:15:00,59.9,55.7,29.94,NW,316,0.0,2.0,86,0.00,,,0.01,Wunderground v.1.15,2013-10-02 01:15:00,
2013-10-01 21:18:00,60.1,55.9,29.94,NW,316,0.0,2.0,86,0.00,,,0.01,Wunderground v.1.15,2013-10-02 01:18:00,
2013-10-01 21:19:00,60.1,55.9,29.94,NW,316,0.0,0.0,86,0.00,,,0.01,Wunderground v.1.15,2013-10-02 01:19:00,
2013-10-01 21:20:00,60.2,56.0,29.94,NW,316,0.0,1.0,86,0.00,,,0.01,Wunderground v.1.15,2013-10-02 01:20:00,
2013-10-01 21:23:00,60.3,55.8,29.93,NW,316,0.0,1.0,85,0.00,,,0.01,Wunderground v.1.15,2013-10-02 01:23:00,
2013-10-01 21:25:00,60.4,55.9,29.93,NW,316,0.0,1.0,85,0.00,,,0.01,Wunderground v.1.15,2013-10-02 01:25:00,
2013-10-01 21:26:00,60.4,55.9,29.94,NW,316,0.0,1.0,85,0.00,,,0.01,Wunderground v.1.15,2013-10-02 01:26:00,
2013-10-01 21:28:00,60.5,56.0,29.93,NW,316,0.0,0.0,85,0.00,,,0.01,Wunderground v.1.15,2013-10-02 01:28:00,
2013-10-01 21:30:00,60.5,56.0,29.93,NW,316,0.0,1.0,85,0.00,,,0.01,Wunderground v.1.15,2013-10-02 01:30:00,
2013-10-01 21:31:00,60.5,56.0,29.93,NW,316,0.0,1.0,85,0.00,,,0.01,Wunderground v.1.15,2013-10-02 01:31:00,
2013-10-01 21:33:00,60.5,56.0,29.93,NW,316,0.0,1.0,85,0.00,,,0.01,Wunderground v.1.15,2013-10-02 01:33:00,
2013-10-01 21:35:00,60.5,56.0,29.93,NW,316,0.0,1.0,85,0.00,,,0.01,Wunderground v.1.15,2013-10-02 01:35:00,
2013-10-01 21:36:00,60.5,56.0,29.93,NW,316,0.0,1.0,85,0.00,,,0.01,Wunderground v.1.15,2013-10-02 01:36:00,
2013-10-01 21:38:00,60.4,55.9,29.93,NW,316,1.0,1.0,85,0.00,,,0.01,Wunderground v.1.15,2013-10-02 01:38:00,
2013-10-01 21:40:00,60.3,55.8,29.93,NW,316,0.0,1.0,85,0.00,,,0.01,Wunderground v.1.15,2013-10-02 01:40:00,
2013-10-01 21:41:00,60.2,55.7,29.93,NW,316,1.0,1.0,85,0.00,,,0.01,Wunderground v.1.15,2013-10-02 01:41:00,
2013-10-01 21:43:00,60.0,55.5,29.94,NW,316,1.0,1.0,85,0.00,,,0.01,Wunderground v.1.15,2013-10-02 01:43:00,
2013-10-01 21:45:00,59.9,55.4,29.94,NW,316,0.0,1.0,85,0.00,,,0.01,Wunderground v.1.15,2013-10-02 01:45:00,
2013-10-01 21:46:00,59.8,55.3,29.94,NW,316,0.0,1.0,85,0.00,,,0.01,Wunderground v.1.15,2013-10-02 01:46:00,
2013-10-01 21:48:00,59.6,55.1,29.94,NW,316,0.0,1.0,85,0.00,,,0.01,Wunderground v.1.15,2013-10-02 01:48:00,
2013-10-01 21:50:00,59.3,55.1,29.94,NW,315,0.0,-999.0,86,0.00,,,0.01,Wunderground v.1.15,2013-10-02 01:50:00,
2013-10-01 21:51:00,59.4,55.2,29.94,NW,316,0.0,1.0,86,0.00,,,0.01,Wunderground v.1.15,2013-10-02 01:51:00,
2013-10-01 21:52:00,59.4,55.2,29.94,NW,316,0.0,1.0,86,0.00,,,0.01,Wunderground v.1.15,2013-10-02 01:52:00,
2013-10-01 21:53:00,59.3,55.1,29.94,NW,316,0.0,1.0,86,0.00,,,0.01,Wunderground v.1.15,2013-10-02 01:53:00,
2013-10-01 21:55:00,59.0,54.8,29.94,NW,315,0.0,-999.0,86,0.00,,,0.01,Wunderground v.1.15,2013-10-02 01:55:00,
2013-10-01 21:56:00,59.1,54.9,29.94,NW,316,0.0,2.0,86,0.00,,,0.01,Wunderground v.1.15,2013-10-02 01:56:00,
2013-10-01 21:57:00,59.0,54.8,29.94,NW,316,0.0,2.0,86,0.00,,,0.01,Wunderground v.1.15,2013-10-02 01:57:00,
2013-10-01 21:59:00,58.9,54.7,29.94,NW,316,0.0,1.0,86,0.00,,,0.01,Wunderground v.1.15,2013-10-02 01:59:00,
2013-10-01 22:00:00,58.9,55.0,29.94,NW,315,0.0,-999.0,87,0.00,,,0.01,Wunderground v.1.15,2013-10-02 02:00:00,
2013-10-01 22:01:00,58.9,55.0,29.94,NW,316,0.0,1.0,87,0.00,,,0.01,Wunderground v.1.15,2013-10-02 02:01:00,
2013-10-01 22:02:00,58.9,55.0,29.94,NW,316,0.0,1.0,87,0.00,,,0.01,Wunderground v.1.15,2013-10-02 02:02:00,
2013-10-01 22:04:00,58.9,55.0,29.94,NW,316,0.0,1.0,87,0.00,,,0.01,Wunderground v.1.15,2013-10-02 02:04:00,
2013-10-01 22:05:00,59.0,55.1,29.94,NW,315,0.0,-999.0,87,0.00,,,0.01,Wunderground v.1.15,2013-10-02 02:05:00,
2013-10-01 22:06:00,59.0,55.1,29.94,NW,316,0.0,1.0,87,0.00,,,0.01,Wunderground v.1.15,2013-10-02 02:06:00,
2013-10-01 22:07:00,59.0,55.1,29.94,NW,316,0.0,1.0,87,0.00,,,0.01,Wunderground v.1.15,2013-10-02 02:07:00,
2013-10-01 22:08:00,59.1,55.2,29.94,NW,316,0.0,0.0,87,0.00,,,0.01,Wunderground v.1.15,2013-10-02 02:08:00,
2013-10-01 22:10:00,59.1,55.2,29.94,NW,316,0.0,1.0,87,0.00,,,0.01,Wunderground v.1.15,2013-10-02 02:10:00,
2013-10-01 22:11:00,59.2,55.3,29.94,NW,316,0.0,1.0,87,0.00,,,0.01,Wunderground v.1.15,2013-10-02 02:11:00,
2013-10-01 22:12:00,59.2,55.3,29.94,NW,316,0.0,1.0,87,0.00,,,0.01,Wunderground v.1.15,2013-10-02 02:12:00,
2013-10-01 22:13:00,59.2,55.3,29.94,NW,316,0.0,1.0,87,0.00,,,0.01,Wunderground v.1.15,2013-10-02 02:13:00,
2013-10-01 22:15:00,59.3,55.4,29.94,NW,316,0.0,1.0,87,0.00,,,0.01,Wunderground v.1.15,2013-10-02 02:15:00,
2013-10-01 22:16:00,59.3,55.1,29.94,NW,316,0.0,1.0,86,0.00,,,0.01,Wunderground v.1.15,2013-10-02 02:16:00,
2013-10-01 22:17:00,59.3,55.1,29.94,NW,316,0.0,1.0,86,0.00,,,0.01,Wunderground v.1.15,2013-10-02 02:17:00,
2013-10-01 22:18:00,59.3,55.1,29.94,NW,316,0.0,1.0,86,0.00,,,0.01,Wunderground v.1.15,2013-10-02 02:18:00,
2013-10-01 22:19:00,59.4,55.2,29.94,NW,316,0.0,0.0,86,0.00,,,0.01,Wunderground v.1.15,2013-10-02 02:19:00,
2013-10-01 22:20:00,59.4,55.2,29.94,NW,316,0.0,0.0,86,0.00,,,0.01,Wunderground v.1.15,2013-10-02 02:20:00,
2013-10-01 22:22:00,59.4,55.2,29.94,NW,316,0.0,0.0,86,0.00,,,0.01,Wunderground v.1.15,2013-10-02 02:22:00,
2013-10-01 22:23:00,59.4,55.2,29.94,NW,316,0.0,0.0,86,0.00,,,0.01,Wunderground v.1.15,2013-10-02 02:23:00,
2013-10-01 22:24:00,59.4,55.2,29.94,NW,316,0.0,0.0,86,0.00,,,0.01,Wunderground v.1.15,2013-10-02 02:24:00,
2013-10-01 22:25:00,59.4,55.2,29.94,NW,316,0.0,0.0,86,0.00,,,0.01,Wunderground v.1.15,2013-10-02 02:25:00,
2013-10-01 22:27:00,59.3,55.1,29.94,NW,316,0.0,0.0,86,0.00,,,0.01,Wunderground v.1.15,2013-10-02 02:27:00,
2013-10-01 22:28:00,59.3,55.1,29.94,NW,316,0.0,0.0,86,0.00,,,0.01,Wunderground v.1.15,2013-10-02 02:28:00,
2013-10-01 22:30:00,59.3,55.1,29.94,NW,316,0.0,0.0,86,0.00,,,0.01,Wunderground v.1.15,2013-10-02 02:30:00,
2013-10-01 22:32:00,59.2,55.0,29.94,NW,316,0.0,0.0,86,0.00,,,0.01,Wunderground v.1.15,2013-10-02 02:32:00,
2013-10-01 22:34:00,59.2,55.0,29.94,NW,316,0.0,1.0,86,0.00,,,0.01,Wunderground v.1.15,2013-10-02 02:34:00,
2013-10-01 22:35:00,59.2,55.0,29.94,NW,316,0.0,1.0,86,0.00,,,0.01,Wunderground v.1.15,2013-10-02 02:35:00,
2013-10-01 22:37:00,59.2,55.0,29.94,NW,316,0.0,1.0,86,0.00,,,0.01,Wunderground v.1.15,2013-10-02 02:37:00,
2013-10-01 22:38:00,59.2,55.0,29.94,NW,316,0.0,1.0,86,0.00,,,0.01,Wunderground v.1.15,2013-10-02 02:38:00,
2013-10-01 22:39:00,59.2,55.0,29.94,NW,316,0.0,0.0,86,0.00,,,0.01,Wunderground v.1.15,2013-10-02 02:39:00,
2013-10-01 22:40:00,59.2,55.0,29.93,NW,316,0.0,0.0,86,0.00,,,0.01,Wunderground v.1.15,2013-10-02 02:40:00,
2013-10-01 22:43:00,59.2,55.0,29.94,NW,316,0.0,0.0,86,0.00,,,0.01,Wunderground v.1.15,2013-10-02 02:43:00,
2013-10-01 22:44:00,59.1,54.9,29.93,NW,316,0.0,0.0,86,0.00,,,0.01,Wunderground v.1.15,2013-10-02 02:44:00,
2013-10-01 22:45:00,59.1,54.9,29.94,NW,316,0.0,1.0,86,0.00,,,0.01,Wunderground v.1.15,2013-10-02 02:45:00,
2013-10-01 22:46:00,59.1,54.9,29.94,NW,316,0.0,1.0,86,0.00,,,0.01,Wunderground v.1.15,2013-10-02 02:46:00,
2013-10-01 22:48:00,59.0,54.8,29.94,NW,316,0.0,0.0,86,0.00,,,0.01,Wunderground v.1.15,2013-10-02 02:48:00,
2013-10-01 22:49:00,59.0,55.1,29.93,NW,316,0.0,0.0,87,0.00,,,0.01,Wunderground v.1.15,2013-10-02 02:49:00,
2013-10-01 22:50:00,58.9,54.7,29.94,NW,316,0.0,0.0,86,0.00,,,0.01,Wunderground v.1.15,2013-10-02 02:50:00,
2013-10-01 22:51:00,58.9,54.7,29.94,NW,316,0.0,0.0,86,0.00,,,0.01,Wunderground v.1.15,2013-10-02 02:51:00,
2013-10-01 22:53:00,58.7,54.5,29.93,NW,316,0.0,0.0,86,0.00,,,0.01,Wunderground v.1.15,2013-10-02 02:53:00,
2013-10-01 22:54:00,58.7,54.5,29.93,NW,316,0.0,0.0,86,0.00,,,0.01,Wunderground v.1.15,2013-10-02 02:54:00,
2013-10-01 22:55:00,58.7,54.5,29.93,NW,316,0.0,0.0,86,0.00,,,0.01,Wunderground v.1.15,2013-10-02 02:55:00,
2013-10-01 22:56:00,58.6,54.4,29.93,NW,316,0.0,0.0,86,0.00,,,0.01,Wunderground v.1.15,2013-10-02 02:56:00,
2013-10-01 22:58:00,58.5,54.3,29.94,NW,316,0.0,0.0,86,0.00,,,0.01,Wunderground v.1.15,2013-10-02 02:58:00,
2013-10-01 22:59:00,58.4,54.5,29.94,NW,316,0.0,0.0,87,0.00,,,0.01,Wunderground v.1.15,2013-10-02 02:59:00,
2013-10-01 23:00:00,58.4,54.5,29.94,NW,316,0.0,0.0,87,0.00,,,0.01,Wunderground v.1.15,2013-10-02 03:00:00,
2013-10-01 23:01:00,58.3,54.4,29.94,NW,316,0.0,1.0,87,0.00,,,0.01,Wunderground v.1.15,2013-10-02 03:01:00,
2013-10-01 23:02:00,58.3,54.4,29.94,NW,316,0.0,1.0,87,0.00,,,0.01,Wunderground v.1.15,2013-10-02 03:02:00,
2013-10-01 23:03:00,58.2,54.3,29.93,NW,316,0.0,1.0,87,0.00,,,0.01,Wunderground v.1.15,2013-10-02 03:03:00,
2013-10-01 23:05:00,58.1,54.2,29.94,NW,316,0.0,1.0,87,0.00,,,0.01,Wunderground v.1.15,2013-10-02 03:05:00,
2013-10-01 23:06:00,58.0,54.2,29.93,NW,316,0.0,1.0,87,0.00,,,0.01,Wunderground v.1.15,2013-10-02 03:06:00,
2013-10-01 23:07:00,58.0,54.2,29.93,NW,316,0.0,1.0,87,0.00,,,0.01,Wunderground v.1.15,2013-10-02 03:07:00,
2013-10-01 23:08:00,57.9,54.1,29.93,NW,316,0.0,0.0,87,0.00,,,0.01,Wunderground v.1.15,2013-10-02 03:08:00,
2013-10-01 23:10:00,57.8,54.0,29.93,NW,316,0.0,1.0,87,0.00,,,0.01,Wunderground v.1.15,2013-10-02 03:10:00,
2013-10-01 23:11:00,57.7,53.9,29.93,NW,316,0.0,1.0,87,0.00,,,0.01,Wunderground v.1.15,2013-10-02 03:11:00,
2013-10-01 23:12:00,57.7,53.9,29.93,NW,316,0.0,1.0,87,0.00,,,0.01,Wunderground v.1.15,2013-10-02 03:12:00,
2013-10-01 23:13:00,57.6,53.8,29.94,NW,316,0.0,1.0,87,0.00,,,0.01,Wunderground v.1.15,2013-10-02 03:13:00,
2013-10-01 23:15:00,57.4,53.6,29.94,NW,316,0.0,2.0,87,0.00,,,0.01,Wunderground v.1.15,2013-10-02 03:15:00,
2013-10-01 23:16:00,57.3,53.8,29.94,NW,316,0.0,2.0,88,0.00,,,0.01,Wunderground v.1.15,2013-10-02 03:16:00,
2013-10-01 23:17:00,57.3,53.8,29.94,NW,316,1.0,2.0,88,0.00,,,0.01,Wunderground v.1.15,2013-10-02 03:17:00,
2013-10-01 23:18:00,57.1,53.6,29.94,NW,316,0.0,0.0,88,0.00,,,0.01,Wunderground v.1.15,2013-10-02 03:18:00,
2013-10-01 23:20:00,57.0,53.5,29.94,NW,316,0.0,0.0,88,0.00,,,0.01,Wunderground v.1.15,2013-10-02 03:20:00,
2013-10-01 23:21:00,57.0,53.5,29.94,NW,316,0.0,0.0,88,0.00,,,0.01,Wunderground v.1.15,2013-10-02 03:21:00,
2013-10-01 23:22:00,57.0,53.5,29.94,NW,316,0.0,0.0,88,0.00,,,0.01,Wunderground v.1.15,2013-10-02 03:22:00,
2013-10-01 23:23:00,56.9,53.4,29.94,NW,316,0.0,0.0,88,0.00,,,0.01,Wunderground v.1.15,2013-10-02 03:23:00,
2013-10-01 23:25:00,57.0,53.5,29.94,NW,316,0.0,1.0,88,0.00,,,0.01,Wunderground v.1.15,2013-10-02 03:25:00,
2013-10-01 23:26:00,57.1,53.9,29.94,NW,316,0.0,1.0,89,0.00,,,0.01,Wunderground v.1.15,2013-10-02 03:26:00,
2013-10-01 23:27:00,57.1,53.9,29.94,NW,316,0.0,1.0,89,0.00,,,0.01,Wunderground v.1.15,2013-10-02 03:27:00,
2013-10-01 23:28:00,57.2,54.0,29.94,NW,316,2.0,2.0,89,0.00,,,0.01,Wunderground v.1.15,2013-10-02 03:28:00,
2013-10-01 23:30:00,57.4,54.2,29.93,NW,316,0.0,2.0,89,0.00,,,0.01,Wunderground v.1.15,2013-10-02 03:30:00,
2013-10-01 23:31:00,57.4,54.2,29.93,NW,316,0.0,2.0,89,0.00,,,0.01,Wunderground v.1.15,2013-10-02 03:31:00,
2013-10-01 23:32:00,57.5,54.3,29.94,NW,316,0.0,2.0,89,0.00,,,0.01,Wunderground v.1.15,2013-10-02 03:32:00,
2013-10-01 23:33:00,57.6,54.4,29.94,NW,316,0.0,2.0,89,0.00,,,0.01,Wunderground v.1.15,2013-10-02 03:33:00,
2013-10-01 23:34:00,57.6,54.4,29.93,NW,316,0.0,2.0,89,0.00,,,0.01,Wunderground v.1.15,2013-10-02 03:34:00,
2013-10-01 23:35:00,57.7,54.5,29.93,NW,316,0.0,2.0,89,0.00,,,0.01,Wunderground v.1.15,2013-10-02 03:35:00,
2013-10-01 23:36:00,57.8,54.3,29.93,NW,316,0.0,2.0,88,0.00,,,0.01,Wunderground v.1.15,2013-10-02 03:36:00,
2013-10-01 23:37:00,57.8,54.3,29.93,NW,316,2.0,2.0,88,0.00,,,0.01,Wunderground v.1.15,2013-10-02 03:37:00,
2013-10-01 23:38:00,57.9,54.7,29.93,NW,316,1.0,2.0,89,0.00,,,0.01,Wunderground v.1.15,2013-10-02 03:38:00,
2013-10-01 23:39:00,57.9,54.7,29.93,NW,316,0.0,0.0,89,0.00,,,0.01,Wunderground v.1.15,2013-10-02 03:39:00,
2013-10-01 23:40:00,58.7,54.5,29.93,NW,316,1.0,1.0,86,0.00,,,0.00,Wunderground v.1.15,2013-10-02 03:40:00,
2013-10-01 23:41:00,58.1,54.6,29.93,NW,316,1.0,2.0,88,0.00,,,0.01,Wunderground v.1.15,2013-10-02 03:41:00,
2013-10-01 23:42:00,58.7,54.5,29.93,NW,316,0.0,2.0,86,0.00,,,0.00,Wunderground v.1.15,2013-10-02 03:42:00,
2013-10-01 23:43:00,58.3,54.8,29.93,NW,316,2.0,2.0,88,0.00,,,0.01,Wunderground v.1.15,2013-10-02 03:43:00,
2013-10-01 23:44:00,58.4,54.9,29.93,NW,316,1.0,2.0,88,0.00,,,0.01,Wunderground v.1.15,2013-10-02 03:44:00,
2013-10-01 23:45:00,58.7,54.8,29.93,NW,315,1.0,-999.0,87,0.00,,,0.01,Wunderground v.1.15,2013-10-02 03:45:00,
2013-10-01 23:46:00,58.6,55.1,29.93,NW,316,1.0,2.0,88,0.00,,,0.01,Wunderground v.1.15,2013-10-02 03:46:00,
2013-10-01 23:47:00,58.6,55.1,29.93,NW,316,0.0,2.0,88,0.00,,,0.01,Wunderground v.1.15,2013-10-02 03:47:00,
2013-10-01 23:48:00,58.7,55.2,29.93,NW,316,1.0,1.0,88,0.00,,,0.01,Wunderground v.1.15,2013-10-02 03:48:00,
2013-10-01 23:49:00,58.8,54.9,29.93,NW,316,0.0,2.0,87,0.00,,,0.01,Wunderground v.1.15,2013-10-02 03:49:00,
2013-10-01 23:50:00,59.0,54.8,29.93,NW,315,0.0,-999.0,86,0.00,,,0.01,Wunderground v.1.15,2013-10-02 03:50:00,
2013-10-01 23:51:00,58.9,55.0,29.93,NW,316,0.0,2.0,87,0.00,,,0.01,Wunderground v.1.15,2013-10-02 03:51:00,
2013-10-01 23:52:00,59.0,55.1,29.93,NW,316,0.0,2.0,87,0.00,,,0.01,Wunderground v.1.15,2013-10-02 03:52:00,
2013-10-01 23:53:00,59.0,55.1,29.93,NW,316,1.0,2.0,87,0.00,,,0.01,Wunderground v.1.15,2013-10-02 03:53:00,
2013-10-01 23:54:00,59.0,55.1,29.93,NW,316,1.0,2.0,87,0.00,,,0.01,Wunderground v.1.15,2013-10-02 03:54:00,
2013-10-01 23:55:00,59.0,54.8,29.93,NW,315,0.0,-999.0,86,0.00,,,0.01,Wunderground v.1.15,2013-10-02 03:55:00,
2013-10-01 23:56:00,59.0,54.8,29.93,NW,316,2.0,2.0,86,0.00,,,0.01,Wunderground v.1.15,2013-10-02 03:56:00,
2013-10-01 23:57:00,59.0,54.8,29.93,NW,316,0.0,2.0,86,0.00,,,0.01,Wunderground v.1.15,2013-10-02 03:57:00,
2013-10-01 23:58:00,59.0,54.8,29.93,NW,316,0.0,1.0,86,0.00,,,0.01,Wunderground v.1.15,2013-10-02 03:58:00,
2013-10-01 23:59:00,58.9,54.7,29.93,NW,316,0.0,1.0,86,0.00,,,0.01,Wunderground v.1.15,2013-10-02 03:59:00,